| time (UTC) | temp C | wind direction | speed KPH | gust KPH | rain 1hr cm | rain 24hr cm | rain mn cm | humidity % | barometer mb |
| 20260507034504 | 0 | 114 | 4.8 | 6.4 | 0.03 | 3.02 | 0.23 | 99 | 1011.5 |
| 20260507034404 | 0 | 108 | 4.8 | 6.4 | 0.03 | 3.02 | 0.23 | 99 | 1011.4 |
| 20260507034304 | 0 | 107 | 4.8 | 6.4 | 0.03 | 3.02 | 0.23 | 99 | 1011.5 |
| 20260507034204 | -1 | 105 | 3.2 | 6.4 | 0.03 | 3.02 | 0.23 | 99 | 1011.3 |
| 20260507034103 | -1 | 105 | 4.8 | 9.7 | 0.03 | 3.02 | 0.23 | 99 | 1011.4 |
| 20260507034004 | -1 | 108 | 4.8 | 9.7 | 0.03 | 3.02 | 0.23 | 99 | 1011.4 |
| 20260507033903 | -1 | 111 | 4.8 | 9.7 | 0.03 | 3.02 | 0.23 | 99 | 1011.3 |
| 20260507033803 | -1 | 111 | 6.4 | 9.7 | 0.03 | 3.02 | 0.23 | 99 | 1011.7 |
| 20260507033703 | -1 | 116 | 6.4 | 9.7 | 0.03 | 3.02 | 0.23 | 99 | 1011.5 |
| 20260507033504 | -1 | 112 | 6.4 | 9.7 | 0.03 | 3.02 | 0.23 | 99 | 1011.7 |
| 20260507033404 | -1 | 116 | 6.4 | 9.7 | 0.03 | 3.02 | 0.23 | 99 | 1011.4 |
| 20260507033304 | 0 | 115 | 8.0 | 9.7 | 0.03 | 3.02 | 0.23 | 99 | 1011.5 |
| 20260507033203 | 0 | 116 | 8.0 | 9.7 | 0.03 | 3.02 | 0.23 | 99 | 1011.5 |
| 20260507033103 | 0 | 112 | 8.0 | 9.7 | 0.03 | 3.02 | 0.23 | 99 | 1011.5 |
| 20260507033004 | 0 | 115 | 6.4 | 9.7 | 0.03 | 3.02 | 0.23 | 99 | 1011.6 |
| 20260507032903 | 0 | 118 | 6.4 | 9.7 | 0.03 | 3.02 | 0.23 | 99 | 1011.5 |
| 20260507032804 | 0 | 120 | 6.4 | 9.7 | 0.03 | 3.02 | 0.23 | 99 | 1011.3 |
| 20260507032704 | 0 | 119 | 6.4 | 9.7 | 0.03 | 3.02 | 0.23 | 99 | 1011.4 |
| 20260507032504 | 0 | 119 | 6.4 | 9.7 | 0.03 | 3.02 | 0.23 | 99 | 1011.5 |
| 20260507032403 | 0 | 115 | 6.4 | 9.7 | 0.03 | 3.02 | 0.23 | 99 | 1011.5 |
| 20260507032305 | 0 | 112 | 6.4 | 9.7 | 0.05 | 3.02 | 0.23 | 99 | 1011.5 |
| 20260507032203 | 0 | 113 | 6.4 | 9.7 | 0.05 | 3.02 | 0.23 | 99 | 1011.2 |
| 20260507032104 | 0 | 122 | 4.8 | 6.4 | 0.05 | 3.02 | 0.23 | 99 | 1011.3 |
| 20260507031904 | 0 | 103 | 4.8 | 6.4 | 0.05 | 3.02 | 0.23 | 99 | 1011.4 |
| 20260507031804 | 0 | 96 | 4.8 | 6.4 | 0.05 | 3.02 | 0.23 | 99 | 1011.3 |
| 20260507031703 | 0 | 90 | 4.8 | 6.4 | 0.05 | 3.02 | 0.23 | 99 | 1011.6 |
| 20260507031603 | 0 | 86 | 4.8 | 6.4 | 0.05 | 3.02 | 0.23 | 99 | 1011.4 |
| 20260507031504 | 0 | 89 | 3.2 | 6.4 | 0.05 | 3.02 | 0.23 | 99 | 1011.6 |
| 20260507031403 | 0 | 90 | 3.2 | 6.4 | 0.05 | 3.02 | 0.23 | 99 | 1011.2 |
| 20260507031303 | 0 | 94 | 3.2 | 3.2 | 0.05 | 3.02 | 0.23 | 99 | 1011.3 |
| 20260507031204 | 0 | 93 | 3.2 | 6.4 | 0.05 | 3.02 | 0.23 | 99 | 1011.3 |
| 20260507031104 | 0 | 96 | 3.2 | 6.4 | 0.05 | 3.02 | 0.23 | 99 | 1011.4 |
| 20260507031004 | 0 | 99 | 3.2 | 6.4 | 0.03 | 3.00 | 0.20 | 99 | 1011.3 |
| 20260507030803 | 0 | 109 | 3.2 | 6.4 | 0.03 | 3.00 | 0.20 | 99 | 1011.3 |
| 20260507030603 | 0 | 119 | 3.2 | 6.4 | 0.03 | 3.00 | 0.20 | 99 | 1011.5 |
| 20260507030504 | 0 | 120 | 3.2 | 6.4 | 0.05 | 3.00 | 0.20 | 99 | 1011.1 |
| 20260507030403 | 0 | 120 | 1.6 | 6.4 | 0.05 | 3.00 | 0.20 | 99 | 1011.2 |
| 20260507030204 | 0 | 121 | 1.6 | 3.2 | 0.05 | 3.00 | 0.20 | 99 | 1011.2 |
| 20260507030104 | 0 | 114 | 1.6 | 3.2 | 0.05 | 3.00 | 0.20 | 99 | 1011.3 |
| 20260507030005 | 0 | 109 | 1.6 | 3.2 | 0.05 | 3.00 | 0.20 | 99 | 1011.0 |
| 20260507025904 | 0 | 109 | 1.6 | 3.2 | 0.05 | 3.00 | 0.20 | 99 | 1011.0 |
| 20260507025804 | 0 | 103 | 1.6 | 3.2 | 0.05 | 3.00 | 0.20 | 99 | 1011.2 |
| 20260507025703 | 0 | 95 | 1.6 | 3.2 | 0.05 | 3.00 | 0.20 | 99 | 1011.1 |
| 20260507025604 | 0 | 82 | 1.6 | 3.2 | 0.05 | 3.00 | 0.20 | 99 | 1011.4 |
| 20260507025504 | 0 | 74 | 0.0 | 3.2 | 0.05 | 3.00 | 0.20 | 99 | 1011.3 |
| 20260507025404 | 0 | 74 | 0.0 | 3.2 | 0.05 | 3.00 | 0.20 | 99 | 1011.0 |
| 20260507025306 | 0 | 74 | 0.0 | 3.2 | 0.05 | 3.00 | 0.20 | 99 | 1011.2 |
| 20260507025203 | 0 | 75 | 0.0 | 3.2 | 0.05 | 3.00 | 0.20 | 99 | 1011.2 |
| 20260507025103 | 0 | 100 | 0.0 | 3.2 | 0.05 | 3.00 | 0.20 | 99 | 1011.2 |
| 20260507025004 | 0 | 110 | 0.0 | 3.2 | 0.05 | 3.00 | 0.20 | 99 | 1011.1 |
| 20260507024903 | 0 | 110 | 0.0 | 3.2 | 0.05 | 3.00 | 0.20 | 99 | 1011.2 |
| 20260507024804 | 0 | 129 | 0.0 | 3.2 | 0.05 | 3.00 | 0.20 | 99 | 1011.0 |
| 20260507024704 | 0 | 121 | 0.0 | 3.2 | 0.05 | 3.00 | 0.20 | 99 | 1011.0 |
| 20260507024603 | 0 | 119 | 0.0 | 3.2 | 0.05 | 3.00 | 0.20 | 99 | 1011.2 |
| 20260507024504 | 0 | 119 | 0.0 | 3.2 | 0.05 | 3.00 | 0.20 | 99 | 1011.2 |
| 20260507024403 | 0 | 119 | 0.0 | 3.2 | 0.05 | 3.00 | 0.20 | 99 | 1011.1 |
| 20260507024203 | 0 | 119 | 0.0 | 3.2 | 0.05 | 3.00 | 0.20 | 99 | 1010.8 |
| 20260507024104 | 0 | 120 | 0.0 | 3.2 | 0.05 | 3.00 | 0.20 | 99 | 1010.9 |
| 20260507024004 | 0 | 124 | 1.6 | 3.2 | 0.10 | 3.00 | 0.20 | 99 | 1010.9 |
| 20260507023904 | 0 | 124 | 1.6 | 3.2 | 0.10 | 3.00 | 0.20 | 99 | 1010.9 |
| 20260507023804 | 0 | 121 | 1.6 | 3.2 | 0.10 | 3.00 | 0.20 | 99 | 1010.9 |
| 20260507023704 | 0 | 117 | 1.6 | 3.2 | 0.10 | 3.00 | 0.20 | 99 | 1011.0 |
| 20260507023603 | 0 | 119 | 1.6 | 3.2 | 0.10 | 3.00 | 0.20 | 99 | 1011.1 |
| 20260507023504 | 0 | 121 | 1.6 | 3.2 | 0.10 | 3.00 | 0.20 | 99 | 1010.8 |
| 20260507023403 | 0 | 116 | 1.6 | 3.2 | 0.10 | 3.00 | 0.20 | 99 | 1011.1 |
| 20260507023303 | 0 | 114 | 1.6 | 3.2 | 0.10 | 3.00 | 0.20 | 99 | 1011.0 |
| 20260507023204 | 0 | 117 | 1.6 | 3.2 | 0.10 | 3.00 | 0.20 | 99 | 1011.2 |
| 20260507023104 | 0 | 117 | 1.6 | 3.2 | 0.10 | 3.00 | 0.20 | 99 | 1011.1 |
| 20260507023005 | 0 | 119 | 1.6 | 6.4 | 0.10 | 3.00 | 0.20 | 99 | 1011.1 |
| 20260507022904 | 0 | 119 | 3.2 | 6.4 | 0.10 | 3.00 | 0.20 | 99 | 1011.1 |
| 20260507022804 | 0 | 121 | 3.2 | 6.4 | 0.10 | 3.00 | 0.20 | 99 | 1011.1 |
| 20260507022704 | 0 | 125 | 3.2 | 6.4 | 0.10 | 3.00 | 0.20 | 99 | 1011.3 |
| 20260507022603 | 0 | 125 | 3.2 | 6.4 | 0.10 | 3.00 | 0.20 | 99 | 1011.1 |
| 20260507022403 | 0 | 130 | 1.6 | 6.4 | 0.05 | 2.97 | 0.18 | 99 | 1011.2 |
| 20260507022306 | 0 | 132 | 1.6 | 6.4 | 0.05 | 2.97 | 0.18 | 99 | 1011.2 |
| 20260507022204 | 0 | 121 | 1.6 | 6.4 | 0.05 | 2.97 | 0.18 | 99 | 1011.1 |
| 20260507022103 | 0 | 110 | 3.2 | 6.4 | 0.05 | 2.97 | 0.18 | 99 | 1011.1 |
| 20260507022004 | 0 | 105 | 1.6 | 6.4 | 0.05 | 2.97 | 0.18 | 99 | 1011.2 |
| 20260507021903 | 0 | 105 | 3.2 | 6.4 | 0.05 | 2.97 | 0.18 | 99 | 1011.1 |
| 20260507021803 | 0 | 103 | 3.2 | 6.4 | 0.05 | 2.97 | 0.18 | 99 | 1010.9 |
| 20260507021703 | 0 | 99 | 3.2 | 6.4 | 0.10 | 2.97 | 0.18 | 99 | 1011.0 |
| 20260507021604 | 0 | 98 | 3.2 | 6.4 | 0.10 | 2.97 | 0.18 | 99 | 1011.0 |
| 20260507021504 | 0 | 99 | 3.2 | 6.4 | 0.10 | 2.97 | 0.18 | 99 | 1011.1 |
| 20260507021404 | 0 | 103 | 4.8 | 6.4 | 0.10 | 2.97 | 0.18 | 99 | 1011.1 |
| 20260507021304 | 0 | 106 | 4.8 | 6.4 | 0.10 | 2.97 | 0.18 | 99 | 1010.9 |
| 20260507021204 | 0 | 109 | 4.8 | 6.4 | 0.10 | 2.97 | 0.18 | 99 | 1011.0 |
| 20260507021103 | 0 | 114 | 4.8 | 6.4 | 0.10 | 2.97 | 0.18 | 99 | 1010.9 |
| 20260507021004 | 0 | 115 | 4.8 | 6.4 | 0.10 | 2.97 | 0.18 | 99 | 1010.9 |
| 20260507020903 | 0 | 118 | 3.2 | 6.4 | 0.10 | 2.97 | 0.18 | 99 | 1011.0 |
| 20260507020804 | 0 | 118 | 3.2 | 6.4 | 0.13 | 2.97 | 0.18 | 99 | 1010.9 |
| 20260507020604 | 0 | 121 | 3.2 | 6.4 | 0.13 | 2.97 | 0.18 | 99 | 1010.8 |
| 20260507020504 | 0 | 122 | 3.2 | 6.4 | 0.10 | 2.95 | 0.15 | 99 | 1011.1 |
| 20260507020404 | 0 | 120 | 3.2 | 6.4 | 0.10 | 2.95 | 0.15 | 99 | 1010.9 |
| 20260507020303 | 0 | 118 | 3.2 | 3.2 | 0.10 | 2.95 | 0.15 | 99 | 1011.0 |
| 20260507020203 | 0 | 119 | 3.2 | 3.2 | 0.10 | 2.95 | 0.15 | 99 | 1011.1 |
| 20260507020103 | 0 | 118 | 3.2 | 6.4 | 0.13 | 2.95 | 0.15 | 99 | 1011.0 |
| 20260507020004 | 0 | 120 | 3.2 | 6.4 | 0.13 | 2.95 | 0.15 | 99 | 1010.9 |
| 20260507015904 | 0 | 119 | 3.2 | 6.4 | 0.13 | 2.95 | 0.15 | 99 | 1010.9 |
| 20260507015804 | 0 | 118 | 3.2 | 6.4 | 0.13 | 2.95 | 0.15 | 99 | 1010.9 |
| 20260507015703 | 0 | 121 | 3.2 | 6.4 | 0.13 | 2.95 | 0.15 | 99 | 1010.9 |
| 20260507015603 | 0 | 127 | 3.2 | 6.4 | 0.13 | 2.95 | 0.15 | 99 | 1010.9 |
| 20260507015504 | 0 | 130 | 3.2 | 6.4 | 0.13 | 2.95 | 0.15 | 99 | 1010.9 |
| 20260507015306 | 0 | 132 | 3.2 | 6.4 | 0.13 | 2.95 | 0.15 | 99 | 1010.9 |
| 20260507015203 | 0 | 134 | 3.2 | 9.7 | 0.13 | 2.95 | 0.15 | 99 | 1010.9 |
| 20260507015103 | 0 | 141 | 3.2 | 9.7 | 0.13 | 2.95 | 0.15 | 99 | 1011.0 |
| 20260507015004 | 0 | 141 | 4.8 | 9.7 | 0.13 | 2.95 | 0.15 | 99 | 1011.0 |
| 20260507014904 | 0 | 140 | 4.8 | 9.7 | 0.13 | 2.95 | 0.15 | 99 | 1010.9 |
| 20260507014804 | 0 | 138 | 4.8 | 9.7 | 0.13 | 2.95 | 0.15 | 99 | 1010.9 |
| 20260507014704 | 0 | 142 | 4.8 | 9.7 | 0.13 | 2.95 | 0.15 | 99 | 1010.8 |
| 20260507014603 | 0 | 143 | 4.8 | 9.7 | 0.13 | 2.95 | 0.15 | 99 | 1010.8 |
| 20260507014504 | 0 | 141 | 4.8 | 9.7 | 0.13 | 2.95 | 0.15 | 99 | 1011.0 |
| 20260507014403 | 0 | 139 | 4.8 | 9.7 | 0.13 | 2.95 | 0.15 | 99 | 1010.9 |
| 20260507014304 | 0 | 141 | 4.8 | 9.7 | 0.13 | 2.95 | 0.15 | 99 | 1010.8 |
| 20260507014204 | 0 | 139 | 4.8 | 9.7 | 0.13 | 2.95 | 0.15 | 99 | 1011.0 |
| 20260507014104 | 0 | 129 | 4.8 | 9.7 | 0.13 | 2.95 | 0.15 | 99 | 1010.8 |
| 20260507014004 | 0 | 124 | 3.2 | 6.4 | 0.10 | 2.92 | 0.13 | 99 | 1010.8 |
| 20260507013903 | 0 | 124 | 4.8 | 11.3 | 0.10 | 2.92 | 0.13 | 99 | 1010.8 |
| 20260507013803 | 0 | 125 | 4.8 | 11.3 | 0.10 | 2.92 | 0.13 | 99 | 1010.7 |
| 20260507013504 | 0 | 114 | 4.8 | 11.3 | 0.10 | 2.92 | 0.13 | 99 | 1010.8 |
| 20260507013403 | 0 | 114 | 4.8 | 11.3 | 0.10 | 2.92 | 0.13 | 99 | 1010.8 |
| 20260507013206 | 0 | 113 | 4.8 | 11.3 | 0.10 | 2.92 | 0.13 | 99 | 1010.9 |
| 20260507013104 | 0 | 115 | 4.8 | 11.3 | 0.10 | 2.92 | 0.13 | 99 | 1010.8 |
| 20260507013004 | 0 | 120 | 4.8 | 11.3 | 0.10 | 2.92 | 0.13 | 99 | 1010.8 |
| 20260507012904 | 0 | 120 | 4.8 | 11.3 | 0.10 | 2.92 | 0.13 | 99 | 1010.7 |
| 20260507012803 | 0 | 115 | 4.8 | 6.4 | 0.10 | 2.92 | 0.13 | 99 | 1010.7 |
| 20260507012703 | 0 | 113 | 4.8 | 6.4 | 0.10 | 2.92 | 0.13 | 99 | 1010.7 |
| 20260507012603 | 0 | 113 | 4.8 | 6.4 | 0.10 | 2.92 | 0.13 | 99 | 1010.8 |
| 20260507012504 | 0 | 115 | 4.8 | 6.4 | 0.10 | 2.92 | 0.13 | 99 | 1010.8 |
| 20260507012403 | 0 | 119 | 4.8 | 6.4 | 0.10 | 2.92 | 0.13 | 99 | 1010.7 |
| 20260507012306 | 0 | 117 | 4.8 | 6.4 | 0.10 | 2.92 | 0.13 | 99 | 1010.7 |
| 20260507012204 | 0 | 114 | 4.8 | 9.7 | 0.10 | 2.92 | 0.13 | 99 | 1010.8 |
| 20260507012103 | 0 | 114 | 4.8 | 9.7 | 0.10 | 2.92 | 0.13 | 99 | 1010.9 |
| 20260507012004 | 0 | 106 | 4.8 | 9.7 | 0.10 | 2.92 | 0.13 | 99 | 1010.7 |
| 20260507011903 | 0 | 100 | 4.8 | 9.7 | 0.10 | 2.95 | 0.13 | 99 | 1010.8 |
| 20260507011803 | 0 | 114 | 4.8 | 12.9 | 0.05 | 2.92 | 0.10 | 99 | 1010.9 |
| 20260507011704 | 0 | 119 | 6.4 | 12.9 | 0.05 | 2.92 | 0.10 | 99 | 1010.9 |
| 20260507011604 | 0 | 122 | 6.4 | 12.9 | 0.05 | 2.92 | 0.10 | 99 | 1010.9 |
| 20260507011505 | 0 | 126 | 8.0 | 12.9 | 0.05 | 2.92 | 0.10 | 99 | 1011.0 |
| 20260507011404 | 0 | 124 | 8.0 | 12.9 | 0.05 | 2.92 | 0.10 | 99 | 1010.8 |
| 20260507011303 | 0 | 126 | 8.0 | 12.9 | 0.05 | 2.92 | 0.10 | 99 | 1010.9 |
| 20260507011203 | 0 | 130 | 8.0 | 12.9 | 0.05 | 2.92 | 0.10 | 99 | 1010.9 |
| 20260507011004 | 0 | 135 | 6.4 | 12.9 | 0.05 | 2.92 | 0.10 | 99 | 1010.9 |
| 20260507010903 | 0 | 133 | 8.0 | 12.9 | 0.03 | 2.87 | 0.05 | 99 | 1010.8 |
| 20260507010804 | 0 | 130 | 8.0 | 12.9 | 0.03 | 2.87 | 0.05 | 99 | 1010.7 |
| 20260507010704 | 0 | 130 | 8.0 | 11.3 | 0.03 | 2.87 | 0.05 | 99 | 1010.7 |
| 20260507010504 | 0 | 123 | 6.4 | 9.7 | 0.03 | 2.87 | 0.05 | 99 | 1010.8 |
| 20260507010404 | 0 | 125 | 6.4 | 9.7 | 0.03 | 2.87 | 0.05 | 99 | 1011.0 |
| 20260507010303 | 0 | 125 | 6.4 | 11.3 | 0.03 | 2.87 | 0.05 | 99 | 1011.1 |
| 20260507010203 | 0 | 126 | 8.0 | 11.3 | 0.00 | 2.84 | 0.03 | 99 | 1010.9 |
| 20260507010104 | 0 | 127 | 8.0 | 11.3 | 0.00 | 2.84 | 0.03 | 99 | 1011.0 |
| 20260507010004 | 0 | 129 | 8.0 | 11.3 | 0.00 | 2.84 | 0.03 | 99 | 1010.8 |
| 20260507005904 | 0 | 134 | 8.0 | 11.3 | 0.00 | 2.84 | 0.03 | 99 | 1011.0 |
| 20260507005803 | 0 | 140 | 8.0 | 12.9 | 0.00 | 2.84 | 0.03 | 99 | 1010.9 |
| 20260507005703 | 0 | 134 | 8.0 | 12.9 | 0.00 | 2.84 | 0.03 | 99 | 1010.9 |
| 20260507005604 | 0 | 134 | 6.4 | 12.9 | 0.00 | 2.84 | 0.03 | 99 | 1011.0 |
| 20260507005504 | 0 | 132 | 8.0 | 12.9 | 0.00 | 2.84 | 0.03 | 99 | 1011.0 |
| 20260507005404 | 0 | 130 | 8.0 | 12.9 | 0.00 | 2.84 | 0.03 | 99 | 1010.8 |
| 20260507005305 | 0 | 127 | 8.0 | 12.9 | 0.00 | 2.84 | 0.03 | 99 | 1010.9 |
| 20260507005203 | 0 | 119 | 8.0 | 12.9 | 0.00 | 2.84 | 0.03 | 99 | 1010.9 |
| 20260507005103 | 0 | 115 | 8.0 | 12.9 | 0.00 | 2.84 | 0.03 | 99 | 1011.0 |
| 20260507004903 | 0 | 111 | 8.0 | 12.9 | 0.00 | 2.84 | 0.03 | 99 | 1011.0 |
| 20260507004803 | 0 | 104 | 8.0 | 11.3 | 0.00 | 2.84 | 0.03 | 99 | 1010.9 |
| 20260507004704 | 0 | 109 | 6.4 | 11.3 | 0.00 | 2.84 | 0.03 | 99 | 1011.0 |
| 20260507004603 | 0 | 109 | 6.4 | 11.3 | 0.00 | 2.84 | 0.03 | 99 | 1011.0 |
| 20260507004504 | 0 | 108 | 6.4 | 11.3 | 0.00 | 2.84 | 0.03 | 99 | 1010.9 |
| 20260507004403 | 0 | 109 | 6.4 | 11.3 | 0.00 | 2.84 | 0.03 | 99 | 1011.0 |
| 20260507004303 | 0 | 112 | 6.4 | 11.3 | 0.00 | 2.84 | 0.03 | 99 | 1011.0 |
| 20260507004203 | 0 | 116 | 4.8 | 11.3 | 0.00 | 2.84 | 0.03 | 99 | 1011.0 |
| 20260507004104 | 0 | 118 | 4.8 | 11.3 | 0.00 | 2.84 | 0.03 | 99 | 1010.8 |
| 20260507004004 | 0 | 117 | 4.8 | 6.4 | 0.00 | 2.84 | 0.03 | 99 | 1011.1 |
| 20260507003903 | 0 | 120 | 3.2 | 6.4 | 0.00 | 2.84 | 0.03 | 99 | 1011.1 |
| 20260507003603 | 0 | 126 | 3.2 | 6.4 | 0.00 | 2.84 | 0.03 | 99 | 1011.1 |
| 20260507003504 | 0 | 131 | 3.2 | 6.4 | 0.00 | 2.84 | 0.03 | 99 | 1011.0 |
| 20260507003303 | 0 | 127 | 1.6 | 3.2 | 0.00 | 2.87 | 0.03 | 99 | 1011.0 |
| 20260507003104 | 0 | 130 | 1.6 | 3.2 | 0.00 | 2.87 | 0.03 | 99 | 1011.0 |
| 20260507003005 | 0 | 129 | 1.6 | 3.2 | 0.00 | 2.87 | 0.03 | 99 | 1010.9 |
| 20260507002904 | 0 | 131 | 1.6 | 3.2 | 0.00 | 2.87 | 0.03 | 99 | 1011.0 |
| 20260507002803 | 0 | 134 | 1.6 | 3.2 | 0.00 | 2.87 | 0.03 | 99 | 1011.0 |
| 20260507002703 | 0 | 135 | 1.6 | 3.2 | 0.00 | 2.87 | 0.03 | 99 | 1010.8 |
| 20260507002603 | 0 | 138 | 1.6 | 3.2 | 0.00 | 2.87 | 0.03 | 99 | 1010.8 |
| 20260507002504 | 0 | 137 | 1.6 | 3.2 | 0.00 | 2.87 | 0.03 | 99 | 1011.0 |
| 20260507002404 | 0 | 134 | 1.6 | 3.2 | 0.00 | 2.87 | 0.03 | 99 | 1010.8 |
| 20260507002204 | 0 | 141 | 1.6 | 3.2 | 0.00 | 2.87 | 0.03 | 99 | 1010.8 |
| 20260507002103 | 0 | 140 | 3.2 | 3.2 | 0.00 | 2.87 | 0.03 | 99 | 1011.0 |
| 20260507002004 | 0 | 141 | 3.2 | 3.2 | 0.00 | 2.87 | 0.03 | 99 | 1011.0 |
| 20260507001903 | 0 | 142 | 3.2 | 3.2 | 0.00 | 2.87 | 0.03 | 99 | 1011.2 |
| 20260507001803 | 0 | 142 | 3.2 | 3.2 | 0.00 | 2.87 | 0.03 | 99 | 1011.0 |
| 20260507001704 | 0 | 145 | 3.2 | 3.2 | 0.00 | 2.87 | 0.03 | 99 | 1010.9 |
| 20260507001604 | 0 | 143 | 3.2 | 3.2 | 0.00 | 2.87 | 0.03 | 99 | 1011.0 |
| 20260507001504 | 0 | 143 | 3.2 | 3.2 | 0.00 | 2.87 | 0.03 | 99 | 1010.9 |
| 20260507001404 | 0 | 146 | 3.2 | 3.2 | 0.00 | 2.87 | 0.03 | 99 | 1011.0 |
| 20260507001203 | 0 | 143 | 3.2 | 3.2 | 0.00 | 2.87 | 0.03 | 99 | 1010.9 |
| 20260507001103 | 0 | 143 | 3.2 | 3.2 | 0.00 | 2.87 | 0.03 | 99 | 1011.0 |
| 20260507001004 | 0 | 141 | 3.2 | 3.2 | 0.00 | 2.87 | 0.03 | 99 | 1011.0 |
| 20260507000903 | 0 | 139 | 3.2 | 3.2 | 0.00 | 2.87 | 0.03 | 99 | 1010.8 |
| 20260507000804 | 0 | 144 | 3.2 | 3.2 | 0.00 | 2.87 | 0.03 | 99 | 1010.8 |
| 20260507000704 | 0 | 138 | 3.2 | 3.2 | 0.00 | 2.87 | 0.03 | 99 | 1011.1 |
| 20260507000603 | 0 | 137 | 3.2 | 6.4 | 0.00 | 2.87 | 0.03 | 99 | 1011.0 |
| 20260507000505 | 0 | 134 | 3.2 | 6.4 | 0.00 | 2.87 | 0.03 | 99 | 1011.0 |
| 20260507000405 | 0 | 140 | 3.2 | 6.4 | 0.00 | 2.87 | 0.03 | 99 | 1010.8 |
| 20260507000303 | 0 | 137 | 3.2 | 6.4 | 0.00 | 2.87 | 0.03 | 99 | 1011.0 |
| 20260507000205 | 0 | 136 | 4.8 | 6.4 | 0.00 | 2.87 | 0.03 | 99 | 1011.0 |
| 20260507000104 | 0 | 133 | 4.8 | 6.4 | 0.00 | 2.87 | 0.03 | 99 | 1011.0 |
| 20260507000005 | 0 | 130 | 4.8 | 6.4 | 0.00 | 2.87 | 0.03 | 99 | 1010.9 |
| 20260506235903 | 0 | 130 | 3.2 | 6.4 | 0.00 | 2.87 | 0.03 | 99 | 1010.8 |
| 20260506235703 | 0 | 121 | 3.2 | 6.4 | 0.00 | 2.87 | 0.03 | 99 | 1011.1 |
| 20260506235504 | 0 | 111 | 3.2 | 6.4 | 0.00 | 2.87 | 0.03 | 99 | 1010.8 |
| 20260506235404 | 0 | 87 | 3.2 | 6.4 | 0.00 | 2.87 | 0.03 | 99 | 1011.0 |
| 20260506235204 | 0 | 70 | 1.6 | 6.4 | 0.03 | 2.87 | 0.03 | 99 | 1011.0 |
| 20260506235103 | 0 | 67 | 1.6 | 6.4 | 0.03 | 2.87 | 0.03 | 99 | 1011.0 |
| 20260506235004 | 0 | 63 | 1.6 | 6.4 | 0.03 | 2.87 | 0.03 | 99 | 1011.0 |
| 20260506234903 | 0 | 63 | 1.6 | 6.4 | 0.03 | 2.87 | 0.03 | 99 | 1010.9 |
| 20260506234804 | 0 | 63 | 1.6 | 6.4 | 0.03 | 2.87 | 0.03 | 99 | 1010.9 |
| 20260506234704 | 0 | 66 | 1.6 | 6.4 | 0.03 | 2.87 | 0.03 | 99 | 1010.9 |
| 20260506234604 | 0 | 74 | 1.6 | 6.4 | 0.03 | 2.87 | 0.03 | 99 | 1010.7 |
| 20260506234504 | 0 | 73 | 1.6 | 6.4 | 0.03 | 2.87 | 0.03 | 99 | 1011.1 |
| 20260506234404 | 0 | 91 | 0.0 | 6.4 | 0.03 | 2.87 | 0.03 | 99 | 1011.0 |
| 20260506234303 | 0 | 146 | 0.0 | 3.2 | 0.03 | 2.87 | 0.03 | 99 | 1010.9 |
| 20260506234203 | 0 | 158 | 0.0 | 3.2 | 0.03 | 2.87 | 0.03 | 99 | 1010.8 |
| 20260506234103 | 0 | 158 | 0.0 | 3.2 | 0.03 | 2.87 | 0.03 | 99 | 1010.8 |
| 20260506234004 | 0 | 158 | 0.0 | 3.2 | 0.03 | 2.87 | 0.03 | 99 | 1010.8 |
| 20260506233903 | 0 | 158 | 0.0 | 3.2 | 0.03 | 2.87 | 0.03 | 99 | 1010.8 |
| 20260506233804 | 0 | 158 | 0.0 | 3.2 | 0.03 | 2.87 | 0.03 | 99 | 1010.9 |
| 20260506233704 | 0 | 158 | 0.0 | 3.2 | 0.03 | 2.87 | 0.03 | 99 | 1010.7 |
| 20260506233603 | 0 | 158 | 0.0 | 3.2 | 0.03 | 2.87 | 0.03 | 99 | 1010.6 |
| 20260506233504 | 0 | 0 | 0.0 | 0.0 | 0.03 | 2.87 | 0.03 | 99 | 1010.6 |
| 20260506233303 | 0 | 170 | 0.0 | 3.2 | 0.03 | 2.87 | 0.03 | 99 | 1010.8 |
| 20260506233203 | 0 | 170 | 0.0 | 3.2 | 0.03 | 2.87 | 0.03 | 99 | 1010.8 |
| 20260506233104 | 0 | 170 | 0.0 | 3.2 | 0.03 | 2.87 | 0.03 | 99 | 1010.6 |
| 20260506233005 | 0 | 159 | 0.0 | 3.2 | 0.03 | 2.87 | 0.03 | 99 | 1010.7 |
| 20260506232904 | 0 | 153 | 1.6 | 3.2 | 0.03 | 2.87 | 0.03 | 99 | 1010.5 |
| 20260506232703 | 0 | 148 | 1.6 | 3.2 | 0.03 | 2.87 | 0.03 | 99 | 1010.7 |
| 20260506232603 | 0 | 148 | 1.6 | 3.2 | 0.03 | 2.87 | 0.03 | 99 | 1010.6 |
| 20260506232504 | 0 | 149 | 1.6 | 3.2 | 0.03 | 2.87 | 0.03 | 99 | 1010.7 |
| 20260506232403 | 0 | 148 | 1.6 | 3.2 | 0.03 | 2.87 | 0.03 | 99 | 1010.6 |
| 20260506232306 | 0 | 145 | 1.6 | 3.2 | 0.03 | 2.87 | 0.03 | 99 | 1010.4 |
| 20260506232204 | 0 | 146 | 1.6 | 3.2 | 0.03 | 2.87 | 0.03 | 99 | 1010.8 |
| 20260506232104 | 0 | 148 | 1.6 | 3.2 | 0.03 | 2.87 | 0.03 | 99 | 1010.5 |
| 20260506232005 | 0 | 148 | 1.6 | 3.2 | 0.03 | 2.87 | 0.03 | 99 | 1010.6 |
| 20260506231904 | 0 | 151 | 1.6 | 3.2 | 0.03 | 2.87 | 0.03 | 99 | 1010.8 |
| 20260506231803 | 0 | 153 | 1.6 | 3.2 | 0.03 | 2.87 | 0.03 | 99 | 1010.3 |
| 20260506231703 | 0 | 158 | 1.6 | 3.2 | 0.03 | 2.87 | 0.03 | 99 | 1010.5 |
| 20260506231603 | 0 | 161 | 1.6 | 3.2 | 0.03 | 2.87 | 0.03 | 99 | 1010.6 |
| 20260506231504 | 0 | 164 | 1.6 | 3.2 | 0.03 | 2.87 | 0.03 | 99 | 1010.5 |
| 20260506231403 | 0 | 164 | 1.6 | 3.2 | 0.03 | 2.87 | 0.03 | 99 | 1010.5 |
| 20260506231303 | 0 | 163 | 1.6 | 3.2 | 0.03 | 2.87 | 0.03 | 99 | 1010.6 |
| 20260506231204 | 0 | 163 | 1.6 | 3.2 | 0.03 | 2.87 | 0.03 | 99 | 1010.6 |
| 20260506231005 | 0 | 164 | 1.6 | 3.2 | 0.03 | 2.87 | 0.03 | 99 | 1010.5 |
| 20260506230803 | 0 | 161 | 1.6 | 3.2 | 0.03 | 2.87 | 0.03 | 99 | 1010.8 |
| 20260506230703 | 0 | 161 | 1.6 | 3.2 | 0.03 | 2.87 | 0.03 | 99 | 1010.4 |
| 20260506230603 | 0 | 156 | 1.6 | 3.2 | 0.03 | 2.87 | 0.03 | 99 | 1010.6 |
| 20260506230504 | 0 | 150 | 1.6 | 3.2 | 0.03 | 2.87 | 0.03 | 99 | 1010.4 |
| 20260506230404 | 0 | 147 | 1.6 | 3.2 | 0.03 | 2.87 | 0.03 | 99 | 1010.6 |
| 20260506230304 | 0 | 143 | 0.0 | 3.2 | 0.03 | 2.87 | 0.03 | 99 | 1010.6 |
| 20260506230203 | 0 | 135 | 0.0 | 3.2 | 0.03 | 2.87 | 0.03 | 99 | 1010.7 |
| 20260506230103 | 0 | 135 | 0.0 | 3.2 | 0.03 | 2.87 | 0.03 | 99 | 1010.8 |
| 20260506230004 | 0 | 135 | 0.0 | 3.2 | 0.03 | 2.87 | 0.03 | 99 | 1010.8 |
| 20260506225904 | 0 | 135 | 0.0 | 3.2 | 0.03 | 2.87 | 0.03 | 99 | 1010.9 |
| 20260506225804 | 0 | 135 | 0.0 | 3.2 | 0.03 | 2.87 | 0.03 | 99 | 1010.9 |
| 20260506225703 | 0 | 135 | 0.0 | 3.2 | 0.03 | 2.87 | 0.03 | 99 | 1010.7 |
| 20260506225603 | 0 | 135 | 0.0 | 3.2 | 0.03 | 2.87 | 0.03 | 99 | 1010.8 |
| 20260506225403 | 0 | 0 | 0.0 | 0.0 | 0.00 | 2.84 | 0.00 | 99 | 1010.5 |
| 20260506225203 | 0 | 0 | 0.0 | 0.0 | 0.00 | 2.84 | 0.00 | 99 | 1010.6 |
| 20260506225103 | 0 | 0 | 0.0 | 0.0 | 0.00 | 2.84 | 0.00 | 99 | 1010.9 |
| 20260506225004 | 0 | 0 | 0.0 | 0.0 | 0.00 | 2.84 | 0.00 | 99 | 1010.7 |
| 20260506224903 | 0 | 0 | 0.0 | 0.0 | 0.00 | 2.87 | 0.00 | 99 | 1010.8 |
| 20260506224804 | 0 | 0 | 0.0 | 0.0 | 0.00 | 2.87 | 0.00 | 99 | 1010.9 |
| 20260506224704 | 0 | 0 | 0.0 | 0.0 | 0.00 | 2.87 | 0.00 | 99 | 1010.9 |
| 20260506224604 | 0 | 0 | 0.0 | 0.0 | 0.00 | 2.87 | 0.00 | 99 | 1011.2 |
| 20260506224504 | 0 | 0 | 0.0 | 0.0 | 0.00 | 2.87 | 0.00 | 99 | 1010.9 |
| 20260506224403 | 0 | 0 | 0.0 | 0.0 | 0.00 | 2.87 | 0.00 | 99 | 1010.9 |
| 20260506224303 | 0 | 0 | 0.0 | 0.0 | 0.00 | 2.87 | 0.00 | 99 | 1011.0 |
| 20260506224204 | 0 | 0 | 0.0 | 0.0 | 0.00 | 2.87 | 0.00 | 99 | 1011.0 |
| 20260506224104 | 0 | 0 | 0.0 | 0.0 | 0.00 | 2.87 | 0.00 | 99 | 1010.9 |
| 20260506223804 | 0 | 0 | 0.0 | 0.0 | 0.00 | 2.87 | 0.00 | 99 | 1011.0 |
| 20260506223703 | 0 | 0 | 0.0 | 0.0 | 0.00 | 2.87 | 0.00 | 99 | 1010.9 |
| 20260506223504 | 0 | 0 | 0.0 | 0.0 | 0.00 | 2.87 | 0.00 | 99 | 1010.9 |
| 20260506223404 | 0 | 0 | 0.0 | 0.0 | 0.00 | 2.87 | 0.00 | 99 | 1011.0 |
| 20260506223303 | 0 | 0 | 0.0 | 0.0 | 0.00 | 2.87 | 0.00 | 99 | 1011.0 |
| 20260506223203 | 0 | 0 | 0.0 | 0.0 | 0.00 | 2.87 | 0.00 | 99 | 1010.7 |
| 20260506223103 | 0 | 0 | 0.0 | 0.0 | 0.00 | 2.87 | 0.00 | 99 | 1011.1 |
| 20260506223004 | 0 | 0 | 0.0 | 0.0 | 0.00 | 2.87 | 0.00 | 99 | 1010.9 |
| 20260506222804 | 0 | 0 | 0.0 | 0.0 | 0.00 | 2.87 | 0.00 | 99 | 1011.0 |
| 20260506222704 | 0 | 0 | 0.0 | 0.0 | 0.00 | 2.87 | 0.00 | 99 | 1010.9 |
| 20260506222603 | 0 | 0 | 0.0 | 0.0 | 0.00 | 2.87 | 0.00 | 99 | 1010.9 |
| 20260506222403 | 0 | 0 | 0.0 | 0.0 | 0.00 | 2.87 | 0.00 | 99 | 1010.9 |
| 20260506222305 | 0 | 0 | 0.0 | 0.0 | 0.03 | 2.87 | 0.00 | 99 | 1011.0 |
| 20260506222204 | 0 | 0 | 0.0 | 0.0 | 0.03 | 2.87 | 0.00 | 99 | 1011.0 |
| 20260506222005 | 0 | 0 | 0.0 | 0.0 | 0.03 | 2.87 | 0.00 | 99 | 1010.9 |
| 20260506221904 | 0 | 0 | 0.0 | 0.0 | 0.03 | 2.87 | 0.00 | 99 | 1010.8 |
| 20260506221803 | 0 | 0 | 0.0 | 0.0 | 0.03 | 2.87 | 0.00 | 99 | 1011.0 |
| 20260506221703 | 0 | 0 | 0.0 | 0.0 | 0.03 | 2.87 | 0.00 | 99 | 1010.9 |
| 20260506221603 | 0 | 0 | 0.0 | 0.0 | 0.03 | 2.87 | 0.00 | 99 | 1010.8 |
| 20260506221504 | 0 | 0 | 0.0 | 0.0 | 0.03 | 2.87 | 0.00 | 99 | 1011.0 |
| 20260506221403 | 0 | 0 | 0.0 | 0.0 | 0.03 | 2.87 | 0.00 | 99 | 1010.9 |
| 20260506221303 | 0 | 0 | 0.0 | 0.0 | 0.03 | 2.87 | 0.00 | 99 | 1010.9 |
| 20260506221104 | 0 | 0 | 0.0 | 0.0 | 0.03 | 2.87 | 0.00 | 99 | 1010.8 |
| 20260506221005 | 0 | 0 | 0.0 | 0.0 | 0.05 | 2.87 | 0.00 | 99 | 1010.9 |
| 20260506220904 | 0 | 0 | 0.0 | 0.0 | 0.05 | 2.87 | 0.00 | 99 | 1011.1 |
| 20260506220803 | 0 | 0 | 0.0 | 0.0 | 0.05 | 2.87 | 0.00 | 99 | 1010.8 |
| 20260506220603 | 0 | 0 | 0.0 | 0.0 | 0.05 | 2.87 | 0.00 | 99 | 1011.0 |
| 20260506220504 | 0 | 0 | 0.0 | 0.0 | 0.05 | 2.87 | 0.00 | 99 | 1011.1 |
| 20260506220403 | 0 | 0 | 0.0 | 0.0 | 0.05 | 2.87 | 0.00 | 99 | 1010.8 |
| 20260506220303 | 0 | 0 | 0.0 | 0.0 | 0.05 | 2.87 | 0.00 | 99 | 1011.0 |
| 20260506220203 | 0 | 0 | 0.0 | 0.0 | 0.05 | 2.87 | 0.00 | 99 | 1010.9 |
| 20260506220104 | 0 | 0 | 0.0 | 0.0 | 0.05 | 2.87 | 0.00 | 99 | 1010.9 |
| 20260506220005 | 0 | 0 | 0.0 | 0.0 | 0.05 | 2.87 | 0.00 | 99 | 1010.8 |
| 20260506215904 | 0 | 0 | 0.0 | 0.0 | 0.05 | 2.87 | 2.87 | 99 | 1010.8 |
| 20260506215804 | 0 | 0 | 0.0 | 0.0 | 0.10 | 2.87 | 2.87 | 99 | 1011.0 |
| 20260506215703 | 0 | 0 | 0.0 | 0.0 | 0.10 | 2.87 | 2.87 | 99 | 1011.0 |
| 20260506215603 | 0 | 0 | 0.0 | 0.0 | 0.10 | 2.87 | 2.87 | 99 | 1011.0 |
| 20260506215504 | 0 | 0 | 0.0 | 0.0 | 0.10 | 2.87 | 2.87 | 99 | 1010.9 |
| 20260506215403 | 0 | 0 | 0.0 | 0.0 | 0.10 | 2.87 | 2.87 | 99 | 1011.1 |
| 20260506215306 | 0 | 0 | 0.0 | 0.0 | 0.10 | 2.87 | 2.87 | 99 | 1010.9 |
| 20260506215204 | 0 | 0 | 0.0 | 0.0 | 0.10 | 2.87 | 2.87 | 99 | 1011.0 |
| 20260506215103 | 0 | 0 | 0.0 | 0.0 | 0.10 | 2.87 | 2.87 | 99 | 1010.9 |
| 20260506214903 | 0 | 0 | 0.0 | 0.0 | 0.13 | 2.87 | 2.87 | 99 | 1010.8 |
| 20260506214803 | 0 | 0 | 0.0 | 0.0 | 0.13 | 2.87 | 2.87 | 99 | 1010.9 |
| 20260506214703 | 0 | 0 | 0.0 | 0.0 | 0.13 | 2.87 | 2.87 | 99 | 1011.2 |
| 20260506214604 | 0 | 0 | 0.0 | 0.0 | 0.13 | 2.87 | 2.87 | 99 | 1011.0 |
| 20260506214404 | 0 | 0 | 0.0 | 0.0 | 0.13 | 2.87 | 2.87 | 99 | 1010.8 |
| 20260506214304 | 0 | 0 | 0.0 | 0.0 | 0.13 | 2.87 | 2.87 | 99 | 1011.1 |
| 20260506214203 | 0 | 0 | 0.0 | 0.0 | 0.13 | 2.87 | 2.87 | 99 | 1010.9 |
| 20260506214103 | 0 | 0 | 0.0 | 0.0 | 0.13 | 2.87 | 2.87 | 99 | 1010.9 |
| 20260506213903 | 0 | 0 | 0.0 | 0.0 | 0.13 | 2.87 | 2.87 | 99 | 1010.9 |
| 20260506213803 | 0 | 0 | 0.0 | 0.0 | 0.13 | 2.87 | 2.87 | 99 | 1011.0 |
| 20260506213703 | 0 | 0 | 0.0 | 0.0 | 0.13 | 2.87 | 2.87 | 99 | 1010.9 |
| 20260506213504 | 0 | 0 | 0.0 | 0.0 | 0.13 | 2.87 | 2.87 | 99 | 1011.3 |
| 20260506213404 | 0 | 0 | 0.0 | 0.0 | 0.13 | 2.87 | 2.87 | 99 | 1011.1 |
| 20260506213304 | 0 | 0 | 0.0 | 0.0 | 0.13 | 2.87 | 2.87 | 99 | 1011.1 |
| 20260506213203 | 0 | 0 | 0.0 | 0.0 | 0.13 | 2.87 | 2.87 | 99 | 1010.9 |
| 20260506213005 | 0 | 0 | 0.0 | 0.0 | 0.15 | 2.87 | 2.87 | 99 | 1011.0 |
| 20260506212904 | 0 | 0 | 0.0 | 0.0 | 0.15 | 2.87 | 2.87 | 99 | 1011.1 |
| 20260506212805 | 0 | 0 | 0.0 | 0.0 | 0.15 | 2.87 | 2.87 | 99 | 1010.9 |
| 20260506212705 | 0 | 0 | 0.0 | 0.0 | 0.15 | 2.87 | 2.87 | 99 | 1011.1 |
| 20260506212605 | 0 | 0 | 0.0 | 0.0 | 0.15 | 2.87 | 2.87 | 99 | 1011.0 |
| 20260506212506 | 0 | 158 | 0.0 | 3.2 | 0.15 | 2.87 | 2.87 | 99 | 1011.1 |
| 20260506212405 | 0 | 167 | 0.0 | 3.2 | 0.13 | 2.84 | 2.84 | 99 | 1011.0 |
| 20260506212205 | 0 | 167 | 0.0 | 3.2 | 0.13 | 2.84 | 2.84 | 99 | 1011.1 |
| 20260506212105 | 0 | 167 | 0.0 | 3.2 | 0.15 | 2.84 | 2.84 | 99 | 1011.2 |
| 20260506212006 | 0 | 167 | 0.0 | 3.2 | 0.15 | 2.84 | 2.84 | 99 | 1011.0 |
| 20260506211705 | 0 | 160 | 0.0 | 3.2 | 0.18 | 2.84 | 2.84 | 99 | 1011.1 |
| 20260506211605 | 0 | 151 | 0.0 | 3.2 | 0.18 | 2.84 | 2.84 | 99 | 1011.2 |
| 20260506211505 | 0 | 151 | 1.6 | 3.2 | 0.18 | 2.84 | 2.84 | 99 | 1011.1 |
| 20260506211404 | 0 | 141 | 0.0 | 3.2 | 0.18 | 2.84 | 2.84 | 99 | 1011.1 |
| 20260506211305 | 0 | 141 | 0.0 | 3.2 | 0.18 | 2.84 | 2.84 | 99 | 1010.8 |
| 20260506211205 | 0 | 141 | 0.0 | 3.2 | 0.20 | 2.84 | 2.84 | 99 | 1011.2 |
| 20260506211105 | 0 | 140 | 0.0 | 3.2 | 0.18 | 2.82 | 2.82 | 99 | 1011.0 |
| 20260506211005 | 0 | 148 | 1.6 | 6.4 | 0.18 | 2.82 | 2.82 | 99 | 1011.2 |
| 20260506210905 | 0 | 148 | 1.6 | 6.4 | 0.18 | 2.82 | 2.82 | 99 | 1011.0 |
| 20260506210805 | 0 | 145 | 1.6 | 6.4 | 0.18 | 2.82 | 2.82 | 99 | 1011.2 |
| 20260506210705 | 0 | 149 | 1.6 | 6.4 | 0.18 | 2.82 | 2.82 | 99 | 1011.1 |
| 20260506210604 | 0 | 147 | 3.2 | 6.4 | 0.18 | 2.82 | 2.82 | 99 | 1011.1 |
| 20260506210404 | 0 | 142 | 3.2 | 6.4 | 0.18 | 2.82 | 2.82 | 99 | 1011.3 |
| 20260506210304 | 0 | 141 | 3.2 | 6.4 | 0.18 | 2.82 | 2.82 | 99 | 1011.3 |
| 20260506210205 | 0 | 141 | 4.8 | 6.4 | 0.18 | 2.82 | 2.82 | 99 | 1011.2 |
| 20260506210105 | 0 | 141 | 4.8 | 6.4 | 0.18 | 2.82 | 2.82 | 99 | 1011.3 |
| 20260506205705 | 1 | 142 | 4.8 | 6.4 | 0.15 | 2.79 | 2.79 | 99 | 1011.4 |
| 20260506205604 | 1 | 143 | 4.8 | 6.4 | 0.15 | 2.79 | 2.79 | 99 | 1011.2 |
| 20260506205505 | 1 | 144 | 4.8 | 6.4 | 0.15 | 2.79 | 2.79 | 99 | 1011.2 |
| 20260506205306 | 0 | 141 | 4.8 | 6.4 | 0.15 | 2.79 | 2.79 | 99 | 1011.2 |
| 20260506205205 | 0 | 139 | 4.8 | 6.4 | 0.15 | 2.79 | 2.79 | 99 | 1011.2 |
| 20260506205105 | 0 | 139 | 3.2 | 6.4 | 0.15 | 2.79 | 2.79 | 99 | 1011.2 |
| 20260506205006 | 0 | 137 | 3.2 | 6.4 | 0.13 | 2.77 | 2.77 | 99 | 1011.2 |
| 20260506204905 | 0 | 134 | 3.2 | 6.4 | 0.15 | 2.77 | 2.77 | 99 | 1011.3 |
| 20260506204805 | 0 | 133 | 1.6 | 6.4 | 0.15 | 2.77 | 2.77 | 99 | 1011.2 |
| 20260506204704 | 0 | 122 | 1.6 | 6.4 | 0.15 | 2.77 | 2.77 | 99 | 1011.2 |
| 20260506204604 | 0 | 121 | 1.6 | 3.2 | 0.15 | 2.77 | 2.77 | 99 | 1011.2 |
| 20260506204505 | 0 | 126 | 1.6 | 3.2 | 0.15 | 2.77 | 2.77 | 99 | 1011.3 |
| 20260506204404 | 0 | 137 | 1.6 | 3.2 | 0.15 | 2.77 | 2.77 | 99 | 1011.2 |
| 20260506204304 | 0 | 153 | 1.6 | 3.2 | 0.15 | 2.77 | 2.77 | 99 | 1011.2 |
| 20260506204105 | 0 | 173 | 1.6 | 3.2 | 0.15 | 2.77 | 2.77 | 99 | 1011.0 |
| 20260506203905 | 0 | 168 | 1.6 | 3.2 | 0.15 | 2.77 | 2.77 | 99 | 1011.0 |
| 20260506203705 | 1 | 167 | 3.2 | 3.2 | 0.15 | 2.77 | 2.77 | 99 | 1010.9 |
| 20260506203604 | 1 | 166 | 3.2 | 3.2 | 0.15 | 2.77 | 2.77 | 99 | 1011.0 |
| 20260506203405 | 0 | 169 | 3.2 | 3.2 | 0.15 | 2.77 | 2.77 | 99 | 1010.7 |
| 20260506203305 | 0 | 170 | 3.2 | 6.4 | 0.15 | 2.77 | 2.77 | 99 | 1010.7 |
| 20260506203104 | 0 | 171 | 3.2 | 6.4 | 0.13 | 2.72 | 2.72 | 99 | 1010.6 |
| 20260506203005 | 0 | 177 | 3.2 | 6.4 | 0.13 | 2.72 | 2.72 | 99 | 1011.0 |
| 20260506202904 | 0 | 179 | 3.2 | 6.4 | 0.13 | 2.77 | 2.72 | 99 | 1010.8 |
| 20260506202804 | 0 | 177 | 3.2 | 6.4 | 0.13 | 2.77 | 2.72 | 99 | 1010.6 |
| 20260506202706 | 0 | 179 | 3.2 | 6.4 | 0.13 | 2.77 | 2.72 | 99 | 1010.9 |
| 20260506202605 | 0 | 181 | 3.2 | 6.4 | 0.13 | 2.77 | 2.72 | 99 | 1010.7 |
| 20260506202506 | 0 | 181 | 3.2 | 6.4 | 0.13 | 2.77 | 2.72 | 99 | 1010.9 |
| 20260506202405 | 0 | 182 | 3.2 | 6.4 | 0.13 | 2.77 | 2.72 | 99 | 1010.8 |
| 20260506202306 | 0 | 179 | 3.2 | 6.4 | 0.13 | 2.77 | 2.72 | 99 | 1010.7 |
| 20260506202005 | 0 | 171 | 3.2 | 3.2 | 0.10 | 2.72 | 2.69 | 99 | 1010.7 |
| 20260506201805 | 0 | 166 | 3.2 | 6.4 | 0.05 | 2.69 | 2.67 | 99 | 1011.0 |
| 20260506201705 | 0 | 169 | 3.2 | 6.4 | 0.05 | 2.69 | 2.67 | 99 | 1010.8 |
| 20260506201605 | 0 | 175 | 3.2 | 6.4 | 0.05 | 2.69 | 2.67 | 99 | 1010.7 |
| 20260506201505 | 0 | 174 | 3.2 | 6.4 | 0.05 | 2.69 | 2.67 | 99 | 1010.7 |
| 20260506201404 | 0 | 171 | 3.2 | 6.4 | 0.05 | 2.69 | 2.67 | 99 | 1010.8 |
| 20260506201304 | 0 | 169 | 3.2 | 6.4 | 0.03 | 2.67 | 2.64 | 99 | 1010.7 |
| 20260506201204 | 0 | 171 | 3.2 | 6.4 | 0.03 | 2.67 | 2.64 | 99 | 1010.7 |
| 20260506201005 | 0 | 169 | 3.2 | 6.4 | 0.03 | 2.67 | 2.64 | 99 | 1010.9 |
| 20260506200905 | 0 | 167 | 3.2 | 3.2 | 0.03 | 2.67 | 2.64 | 99 | 1010.4 |
| 20260506200805 | 0 | 169 | 3.2 | 6.4 | 0.03 | 2.67 | 2.64 | 99 | 1010.8 |
| 20260506200705 | 0 | 166 | 3.2 | 6.4 | 0.03 | 2.67 | 2.64 | 99 | 1010.7 |
| 20260506200604 | 0 | 160 | 3.2 | 6.4 | 0.03 | 2.67 | 2.64 | 99 | 1010.6 |
| 20260506200505 | 0 | 161 | 3.2 | 6.4 | 0.03 | 2.67 | 2.64 | 99 | 1010.8 |
| 20260506200404 | 0 | 164 | 3.2 | 6.4 | 0.03 | 2.67 | 2.64 | 99 | 1010.7 |
| 20260506200304 | 0 | 167 | 3.2 | 6.4 | 0.05 | 2.67 | 2.64 | 99 | 1010.8 |
| 20260506195805 | 0 | 173 | 1.6 | 3.2 | 0.05 | 2.67 | 2.64 | 99 | 1010.8 |
| 20260506195705 | 0 | 173 | 1.6 | 3.2 | 0.05 | 2.67 | 2.64 | 99 | 1010.5 |
| 20260506195604 | 1 | 175 | 1.6 | 3.2 | 0.05 | 2.67 | 2.64 | 99 | 1010.6 |
| 20260506195505 | 0 | 172 | 1.6 | 3.2 | 0.05 | 2.67 | 2.64 | 99 | 1010.5 |
| 20260506195306 | 0 | 161 | 3.2 | 3.2 | 0.05 | 2.67 | 2.64 | 99 | 1010.6 |
| 20260506195204 | 0 | 155 | 3.2 | 3.2 | 0.05 | 2.67 | 2.64 | 99 | 1010.6 |
| 20260506195105 | 0 | 155 | 3.2 | 3.2 | 0.05 | 2.67 | 2.64 | 99 | 1010.3 |
| 20260506195005 | 0 | 156 | 3.2 | 3.2 | 0.05 | 2.67 | 2.64 | 99 | 1010.6 |
| 20260506194905 | 0 | 156 | 3.2 | 3.2 | 0.03 | 2.64 | 2.62 | 99 | 1010.4 |
| 20260506194805 | 0 | 155 | 3.2 | 3.2 | 0.05 | 2.64 | 2.62 | 99 | 1010.6 |
| 20260506194704 | 0 | 156 | 3.2 | 3.2 | 0.05 | 2.64 | 2.62 | 99 | 1010.6 |
| 20260506194505 | 0 | 155 | 3.2 | 3.2 | 0.05 | 2.64 | 2.62 | 99 | 1010.3 |
| 20260506194304 | 0 | 161 | 3.2 | 3.2 | 0.05 | 2.64 | 2.62 | 99 | 1010.5 |
| 20260506194204 | 0 | 168 | 3.2 | 3.2 | 0.05 | 2.64 | 2.62 | 99 | 1010.6 |
| 20260506194005 | 0 | 172 | 3.2 | 3.2 | 0.05 | 2.64 | 2.62 | 99 | 1010.3 |
| 20260506193904 | 0 | 174 | 3.2 | 3.2 | 0.05 | 2.67 | 2.62 | 99 | 1010.4 |
| 20260506193705 | 0 | 172 | 3.2 | 3.2 | 0.05 | 2.67 | 2.62 | 99 | 1010.5 |
| 20260506193605 | 0 | 171 | 3.2 | 3.2 | 0.05 | 2.67 | 2.62 | 99 | 1010.3 |
| 20260506193506 | 0 | 178 | 1.6 | 3.2 | 0.05 | 2.67 | 2.62 | 99 | 1010.2 |
| 20260506193405 | 0 | 177 | 1.6 | 3.2 | 0.05 | 2.69 | 2.62 | 99 | 1010.2 |
| 20260506193305 | 0 | 175 | 1.6 | 3.2 | 0.05 | 2.69 | 2.62 | 99 | 1010.4 |
| 20260506193204 | 0 | 171 | 1.6 | 3.2 | 0.05 | 2.69 | 2.62 | 99 | 1010.3 |
| 20260506192904 | 0 | 161 | 1.6 | 3.2 | 0.05 | 2.69 | 2.62 | 99 | 1010.5 |
| 20260506192804 | 0 | 161 | 1.6 | 3.2 | 0.05 | 2.69 | 2.62 | 99 | 1010.5 |
| 20260506192705 | 0 | 162 | 1.6 | 3.2 | 0.05 | 2.69 | 2.62 | 99 | 1010.4 |
| 20260506192605 | 0 | 162 | 1.6 | 3.2 | 0.05 | 2.69 | 2.62 | 99 | 1010.3 |
| 20260506192505 | 0 | 162 | 1.6 | 3.2 | 0.10 | 2.69 | 2.62 | 99 | 1010.6 |
| 20260506192405 | 0 | 161 | 1.6 | 3.2 | 0.10 | 2.69 | 2.62 | 99 | 1010.4 |
| 20260506192306 | 0 | 164 | 1.6 | 3.2 | 0.10 | 2.69 | 2.62 | 99 | 1010.3 |
| 20260506192205 | 0 | 163 | 1.6 | 3.2 | 0.10 | 2.69 | 2.62 | 99 | 1010.5 |
| 20260506192104 | 0 | 162 | 1.6 | 3.2 | 0.13 | 2.69 | 2.62 | 99 | 1010.5 |
| 20260506191904 | 0 | 160 | 1.6 | 3.2 | 0.13 | 2.69 | 2.62 | 99 | 1010.3 |
| 20260506191705 | 0 | 160 | 1.6 | 3.2 | 0.13 | 2.69 | 2.62 | 99 | 1010.3 |
| 20260506191605 | 0 | 159 | 1.6 | 3.2 | 0.15 | 2.69 | 2.62 | 99 | 1010.4 |
| 20260506191506 | 0 | 159 | 1.6 | 3.2 | 0.15 | 2.69 | 2.62 | 99 | 1010.1 |
| 20260506191405 | 1 | 159 | 1.6 | 3.2 | 0.18 | 2.69 | 2.62 | 99 | 1010.3 |
| 20260506191305 | 1 | 158 | 1.6 | 3.2 | 0.20 | 2.69 | 2.62 | 99 | 1010.2 |
| 20260506191204 | 1 | 160 | 1.6 | 3.2 | 0.20 | 2.69 | 2.62 | 99 | 1010.3 |
| 20260506191104 | 0 | 160 | 1.6 | 3.2 | 0.20 | 2.69 | 2.62 | 99 | 1010.3 |
| 20260506190904 | 0 | 161 | 3.2 | 3.2 | 0.23 | 2.69 | 2.62 | 99 | 1010.4 |
| 20260506190805 | 0 | 162 | 3.2 | 3.2 | 0.23 | 2.69 | 2.62 | 99 | 1010.4 |
| 20260506190705 | 0 | 159 | 3.2 | 3.2 | 0.23 | 2.69 | 2.62 | 99 | 1010.3 |
| 20260506190506 | 0 | 155 | 3.2 | 3.2 | 0.28 | 2.69 | 2.62 | 99 | 1010.4 |
| 20260506190405 | 0 | 154 | 3.2 | 3.2 | 0.33 | 2.69 | 2.62 | 99 | 1010.3 |
| 20260506190305 | 0 | 153 | 3.2 | 3.2 | 0.30 | 2.67 | 2.59 | 99 | 1010.2 |
| 20260506190204 | 0 | 152 | 3.2 | 3.2 | 0.30 | 2.67 | 2.59 | 99 | 1010.2 |
| 20260506190104 | 0 | 151 | 3.2 | 3.2 | 0.30 | 2.67 | 2.59 | 99 | 1010.2 |
| 20260506185904 | 0 | 152 | 3.2 | 3.2 | 0.30 | 2.67 | 2.59 | 99 | 1010.2 |
| 20260506185804 | 0 | 149 | 3.2 | 3.2 | 0.30 | 2.67 | 2.59 | 99 | 1010.3 |
| 20260506185705 | 0 | 150 | 1.6 | 3.2 | 0.30 | 2.67 | 2.59 | 99 | 1010.3 |
| 20260506185605 | 0 | 152 | 1.6 | 3.2 | 0.33 | 2.67 | 2.59 | 99 | 1010.3 |
| 20260506185505 | 0 | 155 | 1.6 | 3.2 | 0.33 | 2.67 | 2.59 | 99 | 1010.2 |
| 20260506185306 | 0 | 157 | 1.6 | 3.2 | 0.33 | 2.67 | 2.59 | 99 | 1010.2 |
| 20260506185204 | 0 | 156 | 1.6 | 6.4 | 0.36 | 2.67 | 2.59 | 99 | 1010.1 |
| 20260506185005 | 0 | 153 | 3.2 | 6.4 | 0.36 | 2.67 | 2.59 | 99 | 1010.4 |
| 20260506184904 | 0 | 149 | 3.2 | 6.4 | 0.36 | 2.67 | 2.59 | 99 | 1010.0 |
| 20260506184805 | 0 | 149 | 3.2 | 6.4 | 0.33 | 2.64 | 2.54 | 99 | 1010.2 |
| 20260506184705 | 0 | 151 | 3.2 | 6.4 | 0.33 | 2.64 | 2.54 | 99 | 1010.2 |
| 20260506184605 | 0 | 154 | 3.2 | 6.4 | 0.36 | 2.64 | 2.54 | 99 | 1010.5 |
| 20260506184405 | 0 | 155 | 3.2 | 6.4 | 0.38 | 2.64 | 2.54 | 99 | 1010.3 |
| 20260506184305 | 0 | 154 | 3.2 | 6.4 | 0.43 | 2.64 | 2.54 | 99 | 1010.3 |
| 20260506184204 | 0 | 156 | 3.2 | 6.4 | 0.46 | 2.64 | 2.54 | 99 | 1010.3 |
| 20260506184104 | 0 | 157 | 3.2 | 6.4 | 0.46 | 2.64 | 2.54 | 99 | 1010.3 |
| 20260506183905 | 0 | 160 | 3.2 | 6.4 | 0.48 | 2.64 | 2.54 | 99 | 1010.2 |
| 20260506183805 | 0 | 160 | 3.2 | 6.4 | 0.48 | 2.64 | 2.54 | 99 | 1010.1 |
| 20260506183705 | 0 | 157 | 3.2 | 6.4 | 0.53 | 2.64 | 2.54 | 99 | 1010.3 |
| 20260506183605 | 0 | 153 | 3.2 | 6.4 | 0.53 | 2.64 | 2.54 | 99 | 1010.2 |
| 20260506183505 | 0 | 151 | 3.2 | 6.4 | 0.56 | 2.64 | 2.54 | 99 | 1010.2 |
| 20260506183404 | 0 | 152 | 3.2 | 6.4 | 0.56 | 2.64 | 2.54 | 99 | 1010.1 |
| 20260506183304 | 0 | 154 | 3.2 | 6.4 | 0.61 | 2.64 | 2.54 | 99 | 1010.2 |
| 20260506183104 | 0 | 152 | 3.2 | 3.2 | 0.64 | 2.64 | 2.54 | 99 | 1010.1 |
| 20260506183005 | 0 | 159 | 3.2 | 3.2 | 0.66 | 2.64 | 2.54 | 99 | 1010.1 |
| 20260506182905 | 0 | 164 | 3.2 | 3.2 | 0.66 | 2.64 | 2.54 | 99 | 1010.3 |
| 20260506182805 | 0 | 171 | 3.2 | 3.2 | 0.66 | 2.64 | 2.54 | 99 | 1010.2 |
| 20260506182705 | 0 | 183 | 3.2 | 3.2 | 0.66 | 2.64 | 2.54 | 99 | 1010.4 |
| 20260506182604 | 0 | 185 | 3.2 | 6.4 | 0.66 | 2.62 | 2.51 | 99 | 1010.5 |
| 20260506182505 | 0 | 191 | 3.2 | 6.4 | 0.69 | 2.62 | 2.51 | 99 | 1010.4 |
| 20260506182404 | 0 | 196 | 3.2 | 6.4 | 0.69 | 2.62 | 2.51 | 99 | 1010.5 |
| 20260506182204 | 0 | 207 | 3.2 | 6.4 | 0.79 | 2.62 | 2.51 | 99 | 1010.4 |
| 20260506182105 | 0 | 215 | 3.2 | 6.4 | 0.76 | 2.59 | 2.49 | 99 | 1010.3 |
| 20260506181905 | 0 | 200 | 3.2 | 9.7 | 0.76 | 2.59 | 2.49 | 99 | 1010.2 |
| 20260506181805 | 0 | 195 | 3.2 | 9.7 | 0.76 | 2.59 | 2.49 | 99 | 1010.6 |
| 20260506181704 | 0 | 183 | 3.2 | 9.7 | 0.71 | 2.54 | 2.46 | 99 | 1010.3 |
| 20260506181505 | 0 | 143 | 3.2 | 9.7 | 0.71 | 2.51 | 2.44 | 99 | 1010.5 |
| 20260506181404 | 0 | 128 | 3.2 | 9.7 | 0.76 | 2.51 | 2.44 | 99 | 1010.7 |
| 20260506181305 | 0 | 129 | 3.2 | 9.7 | 0.71 | 2.49 | 2.39 | 99 | 1010.3 |
| 20260506181205 | 0 | 131 | 3.2 | 9.7 | 0.71 | 2.49 | 2.39 | 99 | 1010.5 |
| 20260506181104 | 0 | 129 | 3.2 | 9.7 | 0.71 | 2.49 | 2.39 | 99 | 1010.5 |
| 20260506181005 | 0 | 129 | 3.2 | 9.7 | 0.71 | 2.49 | 2.39 | 99 | 1010.6 |
| 20260506180904 | 0 | 140 | 3.2 | 3.2 | 0.71 | 2.46 | 2.36 | 99 | 1010.7 |
| 20260506180804 | 0 | 132 | 3.2 | 3.2 | 0.71 | 2.46 | 2.36 | 99 | 1010.4 |
| 20260506180704 | 0 | 128 | 1.6 | 3.2 | 0.71 | 2.46 | 2.36 | 99 | 1010.4 |
| 20260506180605 | 0 | 132 | 1.6 | 3.2 | 0.69 | 2.44 | 2.34 | 99 | 1010.3 |
| 20260506180404 | 0 | 131 | 1.6 | 3.2 | 0.66 | 2.36 | 2.29 | 99 | 1010.6 |
| 20260506180305 | 0 | 131 | 1.6 | 3.2 | 0.66 | 2.36 | 2.29 | 99 | 1010.6 |
| 20260506180205 | 0 | 130 | 1.6 | 3.2 | 0.66 | 2.36 | 2.29 | 99 | 1010.5 |
| 20260506180104 | 0 | 143 | 1.6 | 6.4 | 0.69 | 2.36 | 2.29 | 99 | 1010.6 |
| 20260506180006 | 0 | 151 | 1.6 | 6.4 | 0.71 | 2.36 | 2.29 | 99 | 1010.6 |
| 20260506175904 | 0 | 144 | 1.6 | 6.4 | 0.71 | 2.36 | 2.29 | 99 | 1010.5 |
| 20260506175804 | 0 | 148 | 3.2 | 6.4 | 0.71 | 2.36 | 2.29 | 99 | 1010.5 |
| 20260506175704 | 0 | 140 | 3.2 | 9.7 | 0.69 | 2.34 | 2.26 | 99 | 1010.4 |
| 20260506175605 | 0 | 128 | 4.8 | 9.7 | 0.69 | 2.34 | 2.26 | 99 | 1010.5 |
| 20260506175505 | 0 | 133 | 4.8 | 11.3 | 0.71 | 2.34 | 2.26 | 99 | 1010.3 |
| 20260506175306 | 0 | 137 | 6.4 | 11.3 | 0.76 | 2.34 | 2.26 | 99 | 1010.5 |
| 20260506175205 | 0 | 139 | 8.0 | 12.9 | 0.76 | 2.31 | 2.21 | 99 | 1010.4 |
| 20260506175104 | 0 | 134 | 9.7 | 12.9 | 0.76 | 2.31 | 2.21 | 99 | 1010.3 |
| 20260506175005 | 0 | 133 | 9.7 | 17.7 | 0.79 | 2.31 | 2.21 | 99 | 1010.2 |
| 20260506174904 | 0 | 137 | 11.3 | 17.7 | 0.81 | 2.31 | 2.21 | 99 | 1010.3 |
| 20260506174804 | 0 | 134 | 11.3 | 17.7 | 0.81 | 2.31 | 2.21 | 99 | 1010.4 |
| 20260506174704 | 0 | 131 | 11.3 | 17.7 | 0.79 | 2.29 | 2.18 | 99 | 1010.3 |
| 20260506174605 | 0 | 134 | 12.9 | 17.7 | 0.79 | 2.29 | 2.18 | 99 | 1010.2 |
| 20260506174505 | 0 | 132 | 12.9 | 17.7 | 0.79 | 2.26 | 2.16 | 99 | 1010.4 |
| 20260506174405 | 0 | 132 | 12.9 | 17.7 | 0.79 | 2.26 | 2.16 | 99 | 1010.3 |
| 20260506174006 | 0 | 133 | 12.9 | 17.7 | 0.81 | 2.16 | 2.06 | 99 | 1010.3 |
| 20260506173905 | 0 | 129 | 12.9 | 17.7 | 0.84 | 2.16 | 2.06 | 99 | 1010.3 |
| 20260506173804 | 0 | 129 | 12.9 | 17.7 | 0.81 | 2.13 | 2.03 | 99 | 1010.1 |
| 20260506173705 | 1 | 132 | 12.9 | 17.7 | 0.79 | 2.11 | 2.01 | 99 | 1010.3 |
| 20260506173605 | 1 | 132 | 12.9 | 17.7 | 0.79 | 2.11 | 2.01 | 99 | 1010.1 |
| 20260506173506 | 1 | 134 | 14.5 | 17.7 | 0.76 | 2.06 | 1.98 | 99 | 1010.2 |
| 20260506173305 | 0 | 130 | 14.5 | 17.7 | 0.76 | 2.03 | 1.96 | 99 | 1010.0 |
| 20260506173205 | 0 | 124 | 14.5 | 17.7 | 0.79 | 2.03 | 1.96 | 99 | 1010.1 |
| 20260506173105 | 1 | 122 | 14.5 | 17.7 | 0.76 | 2.01 | 1.93 | 99 | 1010.1 |
| 20260506172905 | 1 | 125 | 12.9 | 17.7 | 0.71 | 1.98 | 1.88 | 99 | 1010.1 |
| 20260506172704 | 1 | 124 | 11.3 | 17.7 | 0.71 | 1.96 | 1.85 | 99 | 1009.9 |
| 20260506172604 | 1 | 121 | 9.7 | 17.7 | 0.69 | 1.93 | 1.83 | 99 | 1010.0 |
| 20260506172307 | 1 | 120 | 8.0 | 12.9 | 0.66 | 1.88 | 1.80 | 99 | 1010.2 |
| 20260506172204 | 1 | 127 | 8.0 | 12.9 | 0.64 | 1.83 | 1.75 | 99 | 1010.0 |
| 20260506172105 | 1 | 131 | 8.0 | 12.9 | 0.64 | 1.83 | 1.75 | 99 | 1010.0 |
| 20260506172005 | 1 | 135 | 9.7 | 12.9 | 0.64 | 1.83 | 1.75 | 99 | 1010.1 |
| 20260506171805 | 1 | 136 | 9.7 | 12.9 | 0.64 | 1.83 | 1.75 | 99 | 1010.0 |
| 20260506171705 | 1 | 138 | 9.7 | 12.9 | 0.64 | 1.83 | 1.75 | 99 | 1010.0 |
| 20260506171604 | 1 | 140 | 9.7 | 12.9 | 0.61 | 1.80 | 1.70 | 99 | 1009.9 |
| 20260506171506 | 1 | 141 | 9.7 | 14.5 | 0.61 | 1.80 | 1.70 | 99 | 1009.9 |
| 20260506171305 | 1 | 148 | 11.3 | 22.5 | 0.56 | 1.78 | 1.68 | 99 | 1010.0 |
| 20260506171205 | 1 | 150 | 11.3 | 22.5 | 0.56 | 1.78 | 1.68 | 99 | 1009.9 |
| 20260506171104 | 1 | 148 | 11.3 | 22.5 | 0.56 | 1.78 | 1.68 | 99 | 1009.7 |
| 20260506171005 | 1 | 140 | 12.9 | 22.5 | 0.53 | 1.75 | 1.65 | 99 | 1009.6 |
| 20260506170905 | 1 | 141 | 12.9 | 22.5 | 0.53 | 1.75 | 1.65 | 99 | 1009.7 |
| 20260506170805 | 1 | 138 | 14.5 | 22.5 | 0.53 | 1.75 | 1.65 | 99 | 1009.5 |
| 20260506170604 | 1 | 142 | 14.5 | 22.5 | 0.51 | 1.70 | 1.63 | 99 | 1009.4 |
| 20260506170505 | 1 | 145 | 16.1 | 22.5 | 0.51 | 1.70 | 1.63 | 99 | 1009.4 |
| 20260506170304 | 1 | 138 | 16.1 | 24.1 | 0.51 | 1.70 | 1.63 | 99 | 1009.5 |
| 20260506170204 | 1 | 130 | 16.1 | 24.1 | 0.48 | 1.68 | 1.60 | 99 | 1009.4 |
| 20260506170105 | 1 | 127 | 14.5 | 24.1 | 0.48 | 1.68 | 1.60 | 99 | 1009.5 |
| 20260506170005 | 1 | 128 | 14.5 | 24.1 | 0.46 | 1.65 | 1.55 | 99 | 1009.5 |
| 20260506165905 | 1 | 123 | 12.9 | 24.1 | 0.46 | 1.65 | 1.55 | 99 | 1009.2 |
| 20260506165804 | 1 | 119 | 11.3 | 24.1 | 0.46 | 1.65 | 1.55 | 99 | 1009.5 |
| 20260506165704 | 1 | 115 | 9.7 | 24.1 | 0.46 | 1.65 | 1.55 | 99 | 1009.3 |
| 20260506165506 | 2 | 97 | 9.7 | 24.1 | 0.43 | 1.63 | 1.52 | 99 | 1009.5 |
| 20260506165405 | 2 | 96 | 8.0 | 24.1 | 0.38 | 1.60 | 1.50 | 99 | 1009.7 |
| 20260506165306 | 2 | 100 | 8.0 | 14.5 | 0.36 | 1.55 | 1.47 | 99 | 1009.7 |
| 20260506165204 | 2 | 108 | 8.0 | 14.5 | 0.36 | 1.55 | 1.47 | 99 | 1009.4 |
| 20260506165104 | 2 | 104 | 8.0 | 14.5 | 0.33 | 1.52 | 1.45 | 99 | 1009.5 |
| 20260506165005 | 2 | 115 | 8.0 | 14.5 | 0.30 | 1.50 | 1.42 | 99 | 1009.2 |
| 20260506164904 | 2 | 118 | 9.7 | 14.5 | 0.30 | 1.50 | 1.42 | 99 | 1009.4 |
| 20260506164805 | 2 | 117 | 9.7 | 14.5 | 0.30 | 1.50 | 1.42 | 99 | 1009.3 |
| 20260506164705 | 2 | 121 | 11.3 | 14.5 | 0.30 | 1.50 | 1.42 | 99 | 1009.3 |
| 20260506164604 | 2 | 120 | 12.9 | 14.5 | 0.28 | 1.47 | 1.37 | 99 | 1009.1 |
| 20260506164505 | 2 | 118 | 12.9 | 14.5 | 0.28 | 1.47 | 1.37 | 99 | 1009.2 |
| 20260506164405 | 2 | 118 | 12.9 | 14.5 | 0.23 | 1.45 | 1.35 | 99 | 1009.0 |
| 20260506164304 | 2 | 122 | 12.9 | 17.7 | 0.20 | 1.42 | 1.32 | 99 | 1008.9 |
| 20260506164205 | 2 | 126 | 14.5 | 17.7 | 0.18 | 1.37 | 1.30 | 99 | 1009.0 |
| 20260506164105 | 2 | 131 | 14.5 | 17.7 | 0.15 | 1.35 | 1.27 | 99 | 1009.0 |
| 20260506164005 | 2 | 125 | 14.5 | 17.7 | 0.15 | 1.35 | 1.27 | 99 | 1009.0 |
| 20260506163905 | 2 | 126 | 14.5 | 22.5 | 0.13 | 1.32 | 1.22 | 99 | 1009.2 |
| 20260506163804 | 2 | 132 | 14.5 | 22.5 | 0.13 | 1.32 | 1.22 | 99 | 1009.1 |
| 20260506163704 | 2 | 133 | 16.1 | 24.1 | 0.13 | 1.32 | 1.22 | 99 | 1009.1 |
| 20260506163405 | 2 | 139 | 17.7 | 27.4 | 0.10 | 1.30 | 1.19 | 99 | 1009.2 |
| 20260506163305 | 2 | 133 | 17.7 | 27.4 | 0.10 | 1.30 | 1.19 | 99 | 1009.4 |
| 20260506163205 | 2 | 133 | 17.7 | 27.4 | 0.05 | 1.27 | 1.17 | 99 | 1009.0 |
| 20260506163105 | 2 | 132 | 17.7 | 27.4 | 0.05 | 1.27 | 1.17 | 99 | 1009.0 |
| 20260506162904 | 2 | 135 | 14.5 | 27.4 | 0.05 | 1.27 | 1.17 | 99 | 1008.8 |
| 20260506162805 | 2 | 131 | 14.5 | 27.4 | 0.05 | 1.27 | 1.17 | 99 | 1008.9 |
| 20260506162705 | 2 | 122 | 12.9 | 27.4 | 0.03 | 1.22 | 1.14 | 99 | 1008.9 |
| 20260506162605 | 2 | 107 | 11.3 | 27.4 | 0.03 | 1.22 | 1.14 | 99 | 1008.9 |
| 20260506162404 | 3 | 96 | 6.4 | 27.4 | 0.03 | 1.22 | 1.14 | 99 | 1009.1 |
| 20260506162306 | 3 | 104 | 4.8 | 12.9 | 0.00 | 1.19 | 1.12 | 99 | 1009.1 |
| 20260506162105 | 3 | 94 | 3.2 | 11.3 | 0.00 | 1.19 | 1.12 | 99 | 1009.1 |
| 20260506161905 | 3 | 95 | 3.2 | 6.4 | 0.00 | 1.19 | 1.12 | 99 | 1009.1 |
| 20260506161804 | 3 | 121 | 3.2 | 9.7 | 0.03 | 1.19 | 1.12 | 99 | 1008.9 |
| 20260506161604 | 3 | 141 | 3.2 | 9.7 | 0.03 | 1.19 | 1.12 | 99 | 1009.2 |
| 20260506161404 | 3 | 146 | 4.8 | 9.7 | 0.03 | 1.19 | 1.12 | 99 | 1008.8 |
| 20260506161304 | 3 | 143 | 4.8 | 9.7 | 0.03 | 1.19 | 1.12 | 99 | 1008.9 |
| 20260506161205 | 3 | 138 | 6.4 | 11.3 | 0.03 | 1.19 | 1.12 | 99 | 1009.0 |
| 20260506161105 | 3 | 136 | 6.4 | 11.3 | 0.03 | 1.19 | 1.12 | 99 | 1008.8 |
| 20260506161005 | 3 | 133 | 6.4 | 11.3 | 0.03 | 1.19 | 1.12 | 99 | 1008.8 |
| 20260506160804 | 3 | 129 | 6.4 | 11.3 | 0.03 | 1.19 | 1.12 | 99 | 1008.8 |
| 20260506160604 | 3 | 130 | 4.8 | 11.3 | 0.03 | 1.19 | 1.12 | 99 | 1008.7 |
| 20260506160404 | 3 | 123 | 4.8 | 11.3 | 0.03 | 1.19 | 1.12 | 99 | 1008.8 |
| 20260506160305 | 3 | 121 | 4.8 | 11.3 | 0.03 | 1.19 | 1.12 | 99 | 1008.8 |
| 20260506160205 | 3 | 121 | 4.8 | 6.4 | 0.03 | 1.19 | 1.12 | 99 | 1008.8 |
| 20260506160105 | 3 | 119 | 4.8 | 6.4 | 0.03 | 1.19 | 1.12 | 99 | 1008.8 |
| 20260506155905 | 3 | 116 | 3.2 | 6.4 | 0.03 | 1.19 | 1.12 | 99 | 1008.9 |
| 20260506155804 | 3 | 113 | 3.2 | 6.4 | 0.03 | 1.19 | 1.12 | 99 | 1008.9 |
| 20260506155704 | 3 | 113 | 3.2 | 6.4 | 0.03 | 1.19 | 1.12 | 99 | 1008.8 |
| 20260506155605 | 3 | 111 | 3.2 | 6.4 | 0.03 | 1.19 | 1.12 | 99 | 1008.7 |
| 20260506155506 | 3 | 110 | 1.6 | 6.4 | 0.03 | 1.19 | 1.12 | 99 | 1008.9 |
| 20260506155405 | 3 | 106 | 1.6 | 6.4 | 0.03 | 1.19 | 1.12 | 99 | 1008.6 |
| 20260506155205 | 3 | 102 | 1.6 | 6.4 | 0.03 | 1.19 | 1.12 | 99 | 1008.8 |
| 20260506155005 | 3 | 0 | 0.0 | 0.0 | 0.03 | 1.19 | 1.12 | 99 | 1008.7 |
| 20260506154904 | 3 | 0 | 0.0 | 0.0 | 0.03 | 1.22 | 1.12 | 99 | 1008.7 |
| 20260506154804 | 3 | 0 | 0.0 | 0.0 | 0.03 | 1.22 | 1.12 | 99 | 1008.8 |
| 20260506154604 | 3 | 270 | 0.0 | 3.2 | 0.03 | 1.22 | 1.12 | 99 | 1008.7 |
| 20260506154505 | 3 | 270 | 0.0 | 3.2 | 0.03 | 1.22 | 1.12 | 99 | 1009.0 |
| 20260506154404 | 3 | 270 | 0.0 | 3.2 | 0.03 | 1.22 | 1.12 | 99 | 1008.8 |
| 20260506154305 | 3 | 258 | 1.6 | 3.2 | 0.03 | 1.22 | 1.12 | 99 | 1008.7 |
| 20260506154205 | 3 | 237 | 1.6 | 3.2 | 0.03 | 1.22 | 1.12 | 99 | 1008.8 |
| 20260506154104 | 4 | 183 | 1.6 | 3.2 | 0.03 | 1.22 | 1.12 | 99 | 1008.8 |
| 20260506154005 | 4 | 176 | 1.6 | 3.2 | 0.03 | 1.22 | 1.12 | 99 | 1008.7 |
| 20260506153904 | 4 | 176 | 1.6 | 3.2 | 0.03 | 1.22 | 1.12 | 99 | 1008.7 |
| 20260506153804 | 4 | 176 | 1.6 | 3.2 | 0.03 | 1.22 | 1.12 | 99 | 1008.6 |
| 20260506153705 | 4 | 153 | 1.6 | 3.2 | 0.03 | 1.22 | 1.12 | 99 | 1008.7 |
| 20260506153605 | 4 | 128 | 1.6 | 3.2 | 0.03 | 1.22 | 1.12 | 99 | 1008.7 |
| 20260506153504 | 4 | 120 | 0.0 | 3.2 | 0.03 | 1.22 | 1.12 | 99 | 1008.9 |
| 20260506153405 | 4 | 128 | 0.0 | 3.2 | 0.03 | 1.22 | 1.12 | 99 | 1008.7 |
| 20260506153304 | 4 | 142 | 0.0 | 3.2 | 0.03 | 1.22 | 1.12 | 99 | 1008.7 |
| 20260506153104 | 4 | 272 | 0.0 | 3.2 | 0.03 | 1.22 | 1.12 | 99 | 1008.9 |
| 20260506152904 | 4 | 292 | 0.0 | 3.2 | 0.03 | 1.22 | 1.12 | 99 | 1008.8 |
| 20260506152804 | 4 | 292 | 0.0 | 3.2 | 0.03 | 1.22 | 1.12 | 99 | 1008.9 |
| 20260506152704 | 4 | 292 | 0.0 | 3.2 | 0.03 | 1.22 | 1.12 | 99 | 1008.9 |
| 20260506152605 | 4 | 292 | 0.0 | 3.2 | 0.03 | 1.22 | 1.12 | 99 | 1008.9 |
| 20260506152404 | 4 | 292 | 0.0 | 3.2 | 0.03 | 1.22 | 1.12 | 99 | 1008.9 |
| 20260506152205 | 4 | 158 | 0.0 | 3.2 | 0.03 | 1.22 | 1.12 | 99 | 1008.8 |
| 20260506152104 | 4 | 158 | 0.0 | 3.2 | 0.03 | 1.22 | 1.12 | 99 | 1008.9 |
| 20260506151905 | 4 | 161 | 1.6 | 3.2 | 0.00 | 1.19 | 1.09 | 99 | 1009.0 |
| 20260506151804 | 4 | 165 | 1.6 | 3.2 | 0.00 | 1.19 | 1.09 | 99 | 1008.9 |
| 20260506151604 | 4 | 165 | 1.6 | 3.2 | 0.00 | 1.19 | 1.09 | 99 | 1008.8 |
| 20260506151505 | 3 | 165 | 1.6 | 3.2 | 0.00 | 1.19 | 1.09 | 99 | 1008.9 |
| 20260506151404 | 3 | 165 | 1.6 | 3.2 | 0.00 | 1.19 | 1.09 | 99 | 1008.8 |
| 20260506151304 | 3 | 165 | 1.6 | 3.2 | 0.00 | 1.19 | 1.09 | 99 | 1008.8 |
| 20260506151205 | 3 | 167 | 1.6 | 3.2 | 0.00 | 1.19 | 1.09 | 99 | 1008.9 |
| 20260506151105 | 3 | 164 | 1.6 | 3.2 | 0.00 | 1.19 | 1.09 | 99 | 1008.7 |
| 20260506151005 | 4 | 157 | 0.0 | 3.2 | 0.00 | 1.19 | 1.09 | 99 | 1008.8 |
| 20260506150904 | 4 | 151 | 0.0 | 3.2 | 0.00 | 1.19 | 1.09 | 99 | 1009.1 |
| 20260506150804 | 4 | 135 | 0.0 | 3.2 | 0.00 | 1.19 | 1.09 | 99 | 1008.9 |
| 20260506150704 | 4 | 135 | 0.0 | 3.2 | 0.00 | 1.19 | 1.09 | 99 | 1008.9 |
| 20260506150605 | 4 | 90 | 0.0 | 3.2 | 0.00 | 1.19 | 1.09 | 99 | 1008.8 |
| 20260506150404 | 4 | 52 | 1.6 | 3.2 | 0.00 | 1.19 | 1.09 | 99 | 1008.9 |
| 20260506150305 | 4 | 52 | 1.6 | 3.2 | 0.00 | 1.19 | 1.09 | 99 | 1009.0 |
| 20260506150205 | 5 | 52 | 1.6 | 3.2 | 0.00 | 1.19 | 1.09 | 99 | 1008.9 |
| 20260506150104 | 5 | 39 | 1.6 | 3.2 | 0.00 | 1.19 | 1.09 | 99 | 1009.0 |
| 20260506150005 | 4 | 23 | 1.6 | 3.2 | 0.00 | 1.19 | 1.09 | 99 | 1009.0 |
| 20260506145904 | 4 | 23 | 1.6 | 3.2 | 0.00 | 1.22 | 1.09 | 99 | 1009.0 |
| 20260506145804 | 5 | 37 | 1.6 | 3.2 | 0.00 | 1.22 | 1.09 | 99 | 1009.0 |
| 20260506145705 | 5 | 41 | 1.6 | 3.2 | 0.00 | 1.22 | 1.09 | 99 | 1009.0 |
| 20260506145505 | 5 | 55 | 1.6 | 3.2 | 0.00 | 1.22 | 1.09 | 99 | 1008.8 |
| 20260506145405 | 5 | 99 | 1.6 | 3.2 | 0.00 | 1.22 | 1.09 | 99 | 1008.9 |
| 20260506145204 | 5 | 123 | 1.6 | 3.2 | 0.00 | 1.22 | 1.09 | 99 | 1008.8 |
| 20260506145104 | 5 | 123 | 1.6 | 3.2 | 0.03 | 1.22 | 1.09 | 99 | 1008.6 |
| 20260506144904 | 5 | 123 | 1.6 | 3.2 | 0.03 | 1.22 | 1.09 | 99 | 1008.9 |
| 20260506144804 | 5 | 140 | 1.6 | 3.2 | 0.03 | 1.22 | 1.09 | 99 | 1008.8 |
| 20260506144704 | 5 | 158 | 1.6 | 3.2 | 0.03 | 1.22 | 1.09 | 99 | 1008.9 |
| 20260506144605 | 5 | 156 | 1.6 | 3.2 | 0.03 | 1.22 | 1.09 | 99 | 1008.9 |
| 20260506144404 | 5 | 159 | 1.6 | 3.2 | 0.03 | 1.22 | 1.09 | 99 | 1008.7 |
| 20260506144305 | 5 | 159 | 1.6 | 3.2 | 0.03 | 1.22 | 1.09 | 99 | 1008.8 |
| 20260506144205 | 5 | 159 | 1.6 | 3.2 | 0.03 | 1.22 | 1.09 | 99 | 1008.7 |
| 20260506144105 | 5 | 164 | 1.6 | 3.2 | 0.03 | 1.22 | 1.09 | 99 | 1008.8 |
| 20260506144005 | 5 | 176 | 1.6 | 3.2 | 0.03 | 1.22 | 1.09 | 99 | 1008.8 |
| 20260506143905 | 5 | 185 | 1.6 | 3.2 | 0.03 | 1.22 | 1.09 | 99 | 1008.9 |
| 20260506143704 | 4 | 223 | 3.2 | 3.2 | 0.03 | 1.22 | 1.09 | 99 | 1008.9 |
| 20260506143604 | 4 | 244 | 3.2 | 3.2 | 0.03 | 1.22 | 1.09 | 99 | 1008.7 |
| 20260506143404 | 4 | 278 | 1.6 | 3.2 | 0.05 | 1.22 | 1.09 | 99 | 1008.8 |
| 20260506143204 | 4 | 282 | 1.6 | 3.2 | 0.05 | 1.22 | 1.09 | 99 | 1009.0 |
| 20260506143104 | 5 | 275 | 1.6 | 3.2 | 0.05 | 1.22 | 1.09 | 99 | 1009.0 |
| 20260506143005 | 5 | 267 | 1.6 | 3.2 | 0.05 | 1.22 | 1.09 | 99 | 1009.1 |
| 20260506142905 | 5 | 261 | 1.6 | 3.2 | 0.05 | 1.22 | 1.09 | 99 | 1009.1 |
| 20260506142705 | 5 | 267 | 1.6 | 3.2 | 0.05 | 1.22 | 1.09 | 99 | 1009.1 |
| 20260506142604 | 5 | 261 | 1.6 | 3.2 | 0.05 | 1.22 | 1.09 | 99 | 1008.8 |
| 20260506142505 | 5 | 249 | 1.6 | 3.2 | 0.05 | 1.22 | 1.09 | 99 | 1009.0 |
| 20260506142404 | 4 | 257 | 1.6 | 3.2 | 0.05 | 1.22 | 1.09 | 99 | 1009.0 |
| 20260506142204 | 5 | 269 | 1.6 | 3.2 | 0.05 | 1.22 | 1.09 | 99 | 1009.0 |
| 20260506142104 | 5 | 292 | 1.6 | 3.2 | 0.05 | 1.22 | 1.09 | 99 | 1009.1 |
| 20260506141904 | 5 | 344 | 1.6 | 3.2 | 0.05 | 1.22 | 1.09 | 99 | 1009.1 |
| 20260506141804 | 5 | 352 | 1.6 | 3.2 | 0.05 | 1.22 | 1.09 | 99 | 1009.1 |
| 20260506141705 | 5 | 1 | 1.6 | 3.2 | 0.05 | 1.22 | 1.09 | 99 | 1008.9 |
| 20260506141605 | 5 | 3 | 1.6 | 3.2 | 0.05 | 1.22 | 1.09 | 99 | 1008.9 |
| 20260506141505 | 5 | 3 | 1.6 | 3.2 | 0.05 | 1.22 | 1.09 | 99 | 1009.0 |
| 20260506141405 | 5 | 3 | 1.6 | 3.2 | 0.05 | 1.22 | 1.09 | 99 | 1009.1 |
| 20260506141304 | 5 | 8 | 1.6 | 3.2 | 0.05 | 1.22 | 1.09 | 99 | 1009.2 |
| 20260506141204 | 5 | 8 | 1.6 | 3.2 | 0.05 | 1.22 | 1.09 | 99 | 1009.4 |
| 20260506141104 | 5 | 9 | 1.6 | 3.2 | 0.05 | 1.22 | 1.09 | 99 | 1009.0 |
| 20260506141005 | 5 | 11 | 1.6 | 3.2 | 0.05 | 1.22 | 1.09 | 99 | 1009.2 |
| 20260506140904 | 5 | 1 | 0.0 | 3.2 | 0.05 | 1.22 | 1.09 | 99 | 1009.0 |
| 20260506140804 | 5 | 337 | 0.0 | 3.2 | 0.10 | 1.22 | 1.09 | 99 | 1009.2 |
| 20260506140705 | 6 | 325 | 0.0 | 3.2 | 0.10 | 1.22 | 1.09 | 99 | 1009.0 |
| 20260506140605 | 6 | 270 | 0.0 | 3.2 | 0.10 | 1.22 | 1.09 | 99 | 1009.1 |
| 20260506140505 | 5 | 279 | 0.0 | 3.2 | 0.10 | 1.22 | 1.09 | 99 | 1009.1 |
| 20260506140305 | 5 | 277 | 0.0 | 3.2 | 0.10 | 1.22 | 1.09 | 99 | 1009.0 |
| 20260506140204 | 5 | 276 | 0.0 | 3.2 | 0.10 | 1.22 | 1.09 | 99 | 1009.2 |
| 20260506140104 | 5 | 286 | 1.6 | 3.2 | 0.10 | 1.22 | 1.09 | 99 | 1009.2 |
| 20260506140005 | 5 | 292 | 1.6 | 3.2 | 0.10 | 1.22 | 1.09 | 99 | 1009.2 |
| 20260506135904 | 5 | 292 | 1.6 | 3.2 | 0.10 | 1.22 | 1.09 | 99 | 1009.3 |
| 20260506135805 | 5 | 292 | 1.6 | 3.2 | 0.10 | 1.22 | 1.09 | 99 | 1009.2 |
| 20260506135705 | 5 | 294 | 1.6 | 3.2 | 0.10 | 1.22 | 1.09 | 99 | 1009.1 |
| 20260506135604 | 5 | 296 | 1.6 | 3.2 | 0.10 | 1.22 | 1.09 | 99 | 1009.2 |
| 20260506135505 | 5 | 301 | 1.6 | 3.2 | 0.10 | 1.22 | 1.09 | 99 | 1009.3 |
| 20260506135405 | 5 | 302 | 1.6 | 3.2 | 0.10 | 1.22 | 1.09 | 99 | 1009.3 |
| 20260506135306 | 5 | 302 | 1.6 | 3.2 | 0.10 | 1.22 | 1.09 | 99 | 1009.3 |
| 20260506135204 | 5 | 314 | 0.0 | 3.2 | 0.10 | 1.22 | 1.09 | 99 | 1009.2 |
| 20260506135105 | 5 | 314 | 0.0 | 3.2 | 0.05 | 1.19 | 1.04 | 99 | 1009.3 |
| 20260506135005 | 5 | 314 | 0.0 | 3.2 | 0.05 | 1.19 | 1.04 | 99 | 1009.3 |
| 20260506134905 | 5 | 314 | 0.0 | 3.2 | 0.05 | 1.19 | 1.04 | 99 | 1009.3 |
| 20260506134805 | 5 | 314 | 0.0 | 3.2 | 0.05 | 1.19 | 1.04 | 99 | 1009.1 |
| 20260506134705 | 5 | 301 | 0.0 | 3.2 | 0.05 | 1.19 | 1.04 | 99 | 1009.1 |
| 20260506134604 | 4 | 292 | 0.0 | 3.2 | 0.05 | 1.19 | 1.04 | 99 | 1009.3 |
| 20260506134505 | 4 | 292 | 0.0 | 3.2 | 0.05 | 1.19 | 1.04 | 99 | 1009.3 |
| 20260506134404 | 4 | 292 | 0.0 | 3.2 | 0.05 | 1.19 | 1.04 | 99 | 1009.2 |
| 20260506134205 | 5 | 292 | 0.0 | 3.2 | 0.05 | 1.19 | 1.04 | 99 | 1009.3 |
| 20260506134105 | 5 | 292 | 0.0 | 3.2 | 0.05 | 1.19 | 1.04 | 99 | 1009.2 |
| 20260506134005 | 5 | 292 | 0.0 | 3.2 | 0.05 | 1.19 | 1.04 | 99 | 1009.2 |
| 20260506133904 | 5 | 292 | 0.0 | 3.2 | 0.05 | 1.19 | 1.04 | 99 | 1009.3 |
| 20260506133804 | 4 | 292 | 0.0 | 3.2 | 0.05 | 1.19 | 1.04 | 99 | 1009.4 |
| 20260506133704 | 4 | 292 | 0.0 | 3.2 | 0.05 | 1.19 | 1.04 | 99 | 1009.2 |
| 20260506133605 | 4 | 292 | 0.0 | 3.2 | 0.05 | 1.19 | 1.04 | 99 | 1009.2 |
| 20260506133505 | 4 | 301 | 0.0 | 3.2 | 0.05 | 1.19 | 1.04 | 99 | 1009.1 |
| 20260506133405 | 4 | 290 | 0.0 | 3.2 | 0.03 | 1.17 | 1.02 | 99 | 1009.2 |
| 20260506133304 | 4 | 294 | 0.0 | 3.2 | 0.03 | 1.17 | 1.02 | 99 | 1009.2 |
| 20260506133204 | 4 | 296 | 1.6 | 3.2 | 0.03 | 1.17 | 1.02 | 99 | 1008.9 |
| 20260506133104 | 4 | 298 | 1.6 | 3.2 | 0.03 | 1.17 | 1.02 | 99 | 1009.2 |
| 20260506133005 | 5 | 296 | 1.6 | 3.2 | 0.03 | 1.17 | 1.02 | 99 | 1009.0 |
| 20260506132904 | 5 | 293 | 1.6 | 3.2 | 0.03 | 1.17 | 1.02 | 99 | 1009.0 |
| 20260506132805 | 5 | 291 | 1.6 | 3.2 | 0.03 | 1.17 | 1.02 | 99 | 1009.1 |
| 20260506132705 | 5 | 287 | 1.6 | 3.2 | 0.03 | 1.17 | 1.02 | 99 | 1009.2 |
| 20260506132604 | 5 | 286 | 1.6 | 3.2 | 0.03 | 1.17 | 1.02 | 99 | 1009.0 |
| 20260506132404 | 5 | 303 | 1.6 | 3.2 | 0.03 | 1.17 | 1.02 | 99 | 1009.0 |
| 20260506132204 | 5 | 251 | 3.2 | 6.4 | 0.03 | 1.17 | 1.02 | 99 | 1009.0 |
| 20260506132105 | 5 | 192 | 3.2 | 6.4 | 0.03 | 1.17 | 1.02 | 99 | 1008.9 |
| 20260506132005 | 5 | 165 | 3.2 | 6.4 | 0.03 | 1.17 | 1.02 | 98 | 1009.1 |
| 20260506131905 | 5 | 155 | 3.2 | 6.4 | 0.03 | 1.17 | 1.02 | 99 | 1008.9 |
| 20260506131804 | 5 | 147 | 3.2 | 6.4 | 0.03 | 1.17 | 1.02 | 97 | 1009.1 |
| 20260506131704 | 5 | 146 | 3.2 | 6.4 | 0.03 | 1.17 | 1.02 | 97 | 1008.9 |
| 20260506131604 | 5 | 152 | 3.2 | 6.4 | 0.03 | 1.17 | 1.02 | 98 | 1009.0 |
| 20260506131505 | 5 | 158 | 3.2 | 6.4 | 0.03 | 1.17 | 1.02 | 95 | 1009.0 |
| 20260506131304 | 5 | 141 | 3.2 | 6.4 | 0.03 | 1.17 | 1.02 | 98 | 1009.0 |
| 20260506131204 | 5 | 124 | 1.6 | 6.4 | 0.03 | 1.17 | 1.02 | 98 | 1008.9 |
| 20260506131005 | 5 | 126 | 1.6 | 3.2 | 0.03 | 1.17 | 1.02 | 99 | 1009.0 |
| 20260506130804 | 5 | 104 | 1.6 | 3.2 | 0.00 | 1.14 | 0.99 | 99 | 1009.0 |
| 20260506130705 | 5 | 139 | 1.6 | 3.2 | 0.00 | 1.14 | 0.99 | 99 | 1009.2 |
| 20260506130604 | 4 | 227 | 1.6 | 3.2 | 0.00 | 1.14 | 0.99 | 99 | 1009.0 |
| 20260506130505 | 4 | 248 | 1.6 | 3.2 | 0.00 | 1.14 | 0.99 | 99 | 1009.0 |
| 20260506130404 | 5 | 244 | 1.6 | 3.2 | 0.00 | 1.14 | 0.99 | 99 | 1009.0 |
| 20260506130304 | 5 | 239 | 1.6 | 6.4 | 0.00 | 1.14 | 0.99 | 99 | 1009.1 |
| 20260506130204 | 5 | 240 | 3.2 | 6.4 | 0.00 | 1.14 | 0.99 | 99 | 1009.3 |
| 20260506125905 | 5 | 230 | 3.2 | 9.7 | 0.00 | 1.14 | 0.99 | 99 | 1008.8 |
| 20260506125805 | 5 | 230 | 4.8 | 9.7 | 0.00 | 1.14 | 0.99 | 99 | 1008.8 |
| 20260506125705 | 5 | 234 | 4.8 | 9.7 | 0.00 | 1.14 | 0.99 | 99 | 1009.0 |
| 20260506125604 | 6 | 237 | 4.8 | 9.7 | 0.00 | 1.14 | 0.99 | 99 | 1008.8 |
| 20260506125505 | 6 | 239 | 4.8 | 9.7 | 0.00 | 1.14 | 0.99 | 99 | 1008.9 |
| 20260506125404 | 6 | 242 | 4.8 | 9.7 | 0.00 | 1.14 | 0.99 | 99 | 1008.6 |
| 20260506125305 | 6 | 244 | 4.8 | 9.7 | 0.00 | 1.14 | 0.99 | 99 | 1008.6 |
| 20260506125204 | 6 | 244 | 4.8 | 9.7 | 0.00 | 1.14 | 0.99 | 98 | 1008.8 |
| 20260506125105 | 6 | 255 | 4.8 | 9.7 | 0.00 | 1.14 | 0.99 | 98 | 1009.1 |
| 20260506125005 | 7 | 261 | 4.8 | 9.7 | 0.00 | 1.14 | 0.99 | 98 | 1008.9 |
| 20260506124905 | 7 | 258 | 4.8 | 9.7 | 0.00 | 1.14 | 0.99 | 98 | 1009.0 |
| 20260506124705 | 7 | 264 | 3.2 | 6.4 | 0.00 | 1.14 | 0.99 | 98 | 1009.0 |
| 20260506124505 | 6 | 215 | 4.8 | 11.3 | 0.00 | 1.14 | 0.99 | 99 | 1008.9 |
| 20260506124404 | 6 | 187 | 4.8 | 11.3 | 0.00 | 1.14 | 0.99 | 99 | 1008.9 |
| 20260506124304 | 6 | 169 | 6.4 | 12.9 | 0.00 | 1.14 | 0.99 | 99 | 1008.9 |
| 20260506124005 | 6 | 158 | 6.4 | 12.9 | 0.00 | 1.14 | 0.99 | 99 | 1009.0 |
| 20260506123904 | 5 | 158 | 6.4 | 12.9 | 0.00 | 1.14 | 0.99 | 99 | 1009.0 |
| 20260506123805 | 5 | 156 | 6.4 | 12.9 | 0.00 | 1.14 | 0.99 | 99 | 1008.9 |
| 20260506123705 | 5 | 155 | 6.4 | 12.9 | 0.00 | 1.14 | 0.99 | 99 | 1008.8 |
| 20260506123604 | 5 | 150 | 6.4 | 12.9 | 0.00 | 1.14 | 0.99 | 99 | 1009.0 |
| 20260506123404 | 5 | 170 | 6.4 | 12.9 | 0.00 | 1.14 | 0.99 | 99 | 1008.9 |
| 20260506123304 | 4 | 183 | 4.8 | 6.4 | 0.00 | 1.14 | 0.99 | 99 | 1009.0 |
| 20260506123205 | 4 | 182 | 4.8 | 6.4 | 0.00 | 1.14 | 0.99 | 99 | 1009.0 |
| 20260506123004 | 4 | 188 | 4.8 | 6.4 | 0.00 | 1.14 | 0.99 | 99 | 1009.1 |
| 20260506122905 | 4 | 192 | 4.8 | 6.4 | 0.00 | 1.14 | 0.99 | 99 | 1009.2 |
| 20260506122804 | 3 | 197 | 4.8 | 6.4 | 0.00 | 1.14 | 0.99 | 99 | 1009.0 |
| 20260506122704 | 3 | 201 | 4.8 | 6.4 | 0.00 | 1.14 | 0.99 | 99 | 1009.1 |
| 20260506122604 | 3 | 198 | 4.8 | 6.4 | 0.00 | 1.14 | 0.99 | 99 | 1009.3 |
| 20260506122505 | 3 | 199 | 4.8 | 6.4 | 0.00 | 1.14 | 0.99 | 99 | 1009.2 |
| 20260506122306 | 3 | 190 | 4.8 | 6.4 | 0.00 | 1.14 | 0.99 | 99 | 1009.1 |
| 20260506122205 | 3 | 197 | 4.8 | 6.4 | 0.00 | 1.14 | 0.99 | 99 | 1009.1 |
| 20260506122104 | 3 | 200 | 4.8 | 6.4 | 0.00 | 1.14 | 0.99 | 99 | 1009.1 |
| 20260506122005 | 3 | 205 | 4.8 | 6.4 | 0.00 | 1.14 | 0.99 | 99 | 1008.9 |
| 20260506121904 | 3 | 207 | 4.8 | 6.4 | 0.00 | 1.14 | 0.99 | 99 | 1008.9 |
| 20260506121804 | 3 | 217 | 3.2 | 6.4 | 0.00 | 1.14 | 0.99 | 99 | 1009.1 |
| 20260506121704 | 3 | 223 | 3.2 | 6.4 | 0.03 | 1.14 | 0.99 | 99 | 1009.2 |
| 20260506121505 | 3 | 249 | 3.2 | 6.4 | 0.03 | 1.14 | 0.99 | 99 | 1009.2 |
| 20260506121404 | 3 | 273 | 3.2 | 3.2 | 0.03 | 1.14 | 0.99 | 99 | 1009.2 |
| 20260506121304 | 3 | 280 | 3.2 | 3.2 | 0.03 | 1.14 | 0.99 | 99 | 1009.1 |
| 20260506121205 | 3 | 284 | 3.2 | 3.2 | 0.03 | 1.14 | 0.99 | 99 | 1009.2 |
| 20260506121104 | 3 | 289 | 3.2 | 3.2 | 0.03 | 1.14 | 0.99 | 99 | 1009.2 |
| 20260506121005 | 3 | 296 | 3.2 | 3.2 | 0.03 | 1.14 | 0.99 | 99 | 1009.0 |
| 20260506120904 | 3 | 296 | 3.2 | 3.2 | 0.03 | 1.14 | 0.99 | 99 | 1009.0 |
| 20260506120804 | 3 | 298 | 3.2 | 3.2 | 0.03 | 1.14 | 0.99 | 99 | 1008.9 |
| 20260506120704 | 3 | 300 | 3.2 | 6.4 | 0.03 | 1.14 | 0.99 | 99 | 1008.9 |
| 20260506120505 | 3 | 300 | 3.2 | 6.4 | 0.03 | 1.14 | 0.99 | 99 | 1009.1 |
| 20260506120404 | 3 | 298 | 3.2 | 6.4 | 0.03 | 1.14 | 0.99 | 99 | 1009.0 |
| 20260506120205 | 3 | 280 | 3.2 | 6.4 | 0.03 | 1.14 | 0.99 | 99 | 1008.9 |
| 20260506120104 | 3 | 271 | 3.2 | 6.4 | 0.03 | 1.14 | 0.99 | 99 | 1009.1 |
| 20260506120005 | 3 | 256 | 3.2 | 6.4 | 0.03 | 1.14 | 0.99 | 99 | 1008.9 |
| 20260506115904 | 3 | 250 | 3.2 | 6.4 | 0.03 | 1.14 | 0.99 | 99 | 1008.9 |
| 20260506115505 | 3 | 185 | 3.2 | 6.4 | 0.05 | 1.14 | 0.99 | 99 | 1008.9 |
| 20260506115404 | 3 | 179 | 3.2 | 6.4 | 0.10 | 1.14 | 0.99 | 99 | 1008.8 |
| 20260506115307 | 3 | 177 | 3.2 | 6.4 | 0.10 | 1.14 | 0.99 | 99 | 1008.8 |
| 20260506115204 | 3 | 181 | 3.2 | 6.4 | 0.10 | 1.14 | 0.99 | 99 | 1008.7 |
| 20260506115105 | 3 | 177 | 3.2 | 6.4 | 0.10 | 1.14 | 0.99 | 99 | 1008.7 |
| 20260506115005 | 3 | 179 | 3.2 | 6.4 | 0.10 | 1.14 | 0.99 | 99 | 1008.8 |
| 20260506114905 | 3 | 176 | 3.2 | 6.4 | 0.10 | 1.14 | 0.99 | 99 | 1008.7 |
| 20260506114805 | 3 | 178 | 3.2 | 6.4 | 0.10 | 1.14 | 0.99 | 99 | 1008.5 |
| 20260506114704 | 3 | 193 | 3.2 | 6.4 | 0.13 | 1.14 | 0.99 | 99 | 1008.6 |
| 20260506114604 | 3 | 212 | 3.2 | 6.4 | 0.13 | 1.14 | 0.99 | 99 | 1008.7 |
| 20260506114505 | 3 | 215 | 3.2 | 6.4 | 0.13 | 1.14 | 0.99 | 99 | 1008.7 |
| 20260506114404 | 3 | 211 | 3.2 | 6.4 | 0.13 | 1.14 | 0.99 | 99 | 1008.6 |
| 20260506114304 | 3 | 225 | 3.2 | 6.4 | 0.13 | 1.14 | 0.99 | 99 | 1008.9 |
| 20260506114205 | 3 | 238 | 3.2 | 6.4 | 0.13 | 1.14 | 0.99 | 99 | 1009.0 |
| 20260506114105 | 3 | 239 | 3.2 | 6.4 | 0.13 | 1.14 | 0.99 | 99 | 1008.9 |
| 20260506114006 | 3 | 236 | 3.2 | 6.4 | 0.15 | 1.14 | 0.99 | 99 | 1008.8 |
| 20260506113904 | 3 | 240 | 3.2 | 6.4 | 0.15 | 1.14 | 0.99 | 99 | 1009.1 |
| 20260506113605 | 3 | 242 | 3.2 | 6.4 | 0.15 | 1.14 | 0.99 | 99 | 1009.0 |
| 20260506113404 | 3 | 256 | 1.6 | 6.4 | 0.15 | 1.14 | 0.99 | 99 | 1009.1 |
| 20260506113304 | 4 | 249 | 1.6 | 6.4 | 0.15 | 1.14 | 0.99 | 99 | 1009.0 |
| 20260506113204 | 4 | 243 | 1.6 | 6.4 | 0.15 | 1.14 | 0.99 | 99 | 1009.1 |
| 20260506113104 | 4 | 241 | 0.0 | 6.4 | 0.15 | 1.14 | 0.99 | 99 | 1009.0 |
| 20260506113005 | 4 | 217 | 0.0 | 3.2 | 0.15 | 1.14 | 0.99 | 99 | 1009.1 |
| 20260506112904 | 4 | 165 | 0.0 | 3.2 | 0.18 | 1.14 | 0.99 | 99 | 1009.1 |
| 20260506112704 | 4 | 167 | 0.0 | 3.2 | 0.20 | 1.14 | 0.99 | 99 | 1009.2 |
| 20260506112505 | 4 | 154 | 0.0 | 3.2 | 0.23 | 1.14 | 0.99 | 99 | 1008.9 |
| 20260506112204 | 4 | 151 | 0.0 | 3.2 | 0.23 | 1.14 | 0.99 | 99 | 1009.1 |
| 20260506112005 | 3 | 150 | 0.0 | 3.2 | 0.30 | 1.14 | 0.99 | 99 | 1009.1 |
| 20260506111904 | 3 | 133 | 0.0 | 3.2 | 0.30 | 1.14 | 0.99 | 99 | 1009.0 |
| 20260506111704 | 3 | 112 | 0.0 | 3.2 | 0.33 | 1.12 | 0.97 | 99 | 1009.0 |
| 20260506111605 | 3 | 140 | 0.0 | 3.2 | 0.33 | 1.12 | 0.97 | 99 | 1009.2 |
| 20260506111505 | 3 | 156 | 0.0 | 3.2 | 0.36 | 1.12 | 0.97 | 99 | 1009.0 |
| 20260506111405 | 3 | 139 | 1.6 | 3.2 | 0.36 | 1.12 | 0.97 | 99 | 1009.1 |
| 20260506111304 | 3 | 143 | 1.6 | 3.2 | 0.38 | 1.12 | 0.97 | 99 | 1009.3 |
| 20260506111204 | 3 | 144 | 1.6 | 3.2 | 0.38 | 1.12 | 0.97 | 99 | 1009.2 |
| 20260506111005 | 3 | 141 | 3.2 | 6.4 | 0.38 | 1.12 | 0.97 | 99 | 1009.4 |
| 20260506110904 | 3 | 137 | 3.2 | 6.4 | 0.38 | 1.12 | 0.97 | 99 | 1009.3 |
| 20260506110804 | 3 | 145 | 3.2 | 9.7 | 0.38 | 1.12 | 0.97 | 99 | 1009.3 |
| 20260506110704 | 3 | 152 | 4.8 | 9.7 | 0.38 | 1.12 | 0.97 | 99 | 1009.3 |
| 20260506110605 | 3 | 148 | 4.8 | 11.3 | 0.38 | 1.12 | 0.97 | 99 | 1009.3 |
| 20260506110504 | 3 | 144 | 4.8 | 11.3 | 0.43 | 1.12 | 0.97 | 99 | 1009.2 |
| 20260506110405 | 3 | 143 | 6.4 | 14.5 | 0.43 | 1.12 | 0.97 | 99 | 1009.2 |
| 20260506110304 | 3 | 142 | 6.4 | 14.5 | 0.43 | 1.12 | 0.97 | 99 | 1009.2 |
| 20260506110204 | 3 | 142 | 8.0 | 14.5 | 0.43 | 1.12 | 0.97 | 99 | 1009.1 |
| 20260506110104 | 3 | 141 | 8.0 | 14.5 | 0.43 | 1.12 | 0.97 | 99 | 1009.3 |
| 20260506110005 | 3 | 138 | 8.0 | 14.5 | 0.43 | 1.12 | 0.97 | 98 | 1009.3 |
| 20260506105805 | 3 | 133 | 8.0 | 14.5 | 0.38 | 1.09 | 0.94 | 99 | 1009.4 |
| 20260506105704 | 3 | 128 | 8.0 | 14.5 | 0.38 | 1.09 | 0.94 | 98 | 1009.6 |
| 20260506105505 | 3 | 124 | 6.4 | 14.5 | 0.38 | 1.09 | 0.94 | 99 | 1009.3 |
| 20260506105404 | 3 | 123 | 4.8 | 9.7 | 0.36 | 1.04 | 0.89 | 99 | 1009.2 |
| 20260506105305 | 3 | 122 | 4.8 | 9.7 | 0.36 | 1.04 | 0.89 | 97 | 1009.1 |
| 20260506105104 | 3 | 111 | 3.2 | 9.7 | 0.38 | 1.04 | 0.89 | 99 | 1009.3 |
| 20260506105005 | 3 | 105 | 3.2 | 6.4 | 0.38 | 1.04 | 0.89 | 99 | 1009.4 |
| 20260506104904 | 3 | 105 | 3.2 | 6.4 | 0.38 | 1.04 | 0.89 | 99 | 1009.5 |
| 20260506104705 | 3 | 92 | 1.6 | 6.4 | 0.36 | 1.02 | 0.86 | 99 | 1009.2 |
| 20260506104604 | 3 | 86 | 1.6 | 6.4 | 0.36 | 1.02 | 0.86 | 99 | 1009.2 |
| 20260506104405 | 3 | 78 | 1.6 | 6.4 | 0.36 | 1.04 | 0.86 | 99 | 1009.2 |
| 20260506104304 | 3 | 84 | 1.6 | 6.4 | 0.36 | 1.04 | 0.86 | 99 | 1009.2 |
| 20260506104204 | 3 | 92 | 1.6 | 6.4 | 0.38 | 1.04 | 0.86 | 99 | 1009.2 |
| 20260506104104 | 3 | 103 | 1.6 | 6.4 | 0.36 | 1.02 | 0.84 | 99 | 1009.4 |
| 20260506104005 | 3 | 112 | 1.6 | 6.4 | 0.36 | 1.02 | 0.84 | 99 | 1009.3 |
| 20260506103904 | 3 | 112 | 1.6 | 3.2 | 0.36 | 1.02 | 0.84 | 99 | 1009.4 |
| 20260506103804 | 3 | 128 | 1.6 | 3.2 | 0.36 | 1.02 | 0.84 | 99 | 1009.5 |
| 20260506103705 | 3 | 140 | 1.6 | 6.4 | 0.36 | 1.02 | 0.84 | 99 | 1009.1 |
| 20260506103604 | 3 | 151 | 1.6 | 6.4 | 0.36 | 1.02 | 0.84 | 99 | 1009.1 |
| 20260506103504 | 3 | 147 | 1.6 | 6.4 | 0.36 | 1.02 | 0.84 | 99 | 1009.3 |
| 20260506103405 | 3 | 147 | 1.6 | 6.4 | 0.36 | 1.02 | 0.84 | 99 | 1009.1 |
| 20260506103304 | 3 | 148 | 1.6 | 6.4 | 0.38 | 1.02 | 0.84 | 99 | 1009.1 |
| 20260506103204 | 3 | 151 | 1.6 | 6.4 | 0.38 | 1.02 | 0.84 | 99 | 1009.1 |
| 20260506103105 | 3 | 154 | 1.6 | 6.4 | 0.38 | 1.02 | 0.84 | 99 | 1009.2 |
| 20260506103005 | 3 | 169 | 1.6 | 6.4 | 0.36 | 0.99 | 0.81 | 99 | 1009.3 |
| 20260506102905 | 3 | 173 | 1.6 | 6.4 | 0.36 | 0.99 | 0.81 | 99 | 1009.1 |
| 20260506102804 | 3 | 184 | 1.6 | 6.4 | 0.33 | 0.97 | 0.79 | 99 | 1009.0 |
| 20260506102604 | 3 | 281 | 0.0 | 3.2 | 0.30 | 0.94 | 0.76 | 99 | 1009.2 |
| 20260506102505 | 3 | 281 | 0.0 | 3.2 | 0.30 | 0.94 | 0.76 | 99 | 1009.5 |
| 20260506102404 | 3 | 259 | 0.0 | 3.2 | 0.33 | 0.94 | 0.76 | 99 | 1009.3 |
| 20260506102306 | 3 | 233 | 0.0 | 3.2 | 0.33 | 0.94 | 0.76 | 99 | 1009.0 |
| 20260506102204 | 3 | 233 | 0.0 | 3.2 | 0.30 | 0.89 | 0.71 | 99 | 1009.4 |
| 20260506102104 | 3 | 233 | 0.0 | 3.2 | 0.28 | 0.86 | 0.69 | 99 | 1009.3 |
| 20260506101905 | 3 | 146 | 0.0 | 3.2 | 0.28 | 0.86 | 0.69 | 99 | 1009.4 |
| 20260506101804 | 3 | 146 | 0.0 | 3.2 | 0.23 | 0.84 | 0.66 | 99 | 1009.2 |
| 20260506101705 | 3 | 146 | 0.0 | 3.2 | 0.20 | 0.81 | 0.64 | 99 | 1009.3 |
| 20260506101604 | 3 | 146 | 0.0 | 3.2 | 0.20 | 0.81 | 0.64 | 99 | 1009.2 |
| 20260506101505 | 3 | 146 | 0.0 | 3.2 | 0.18 | 0.79 | 0.61 | 99 | 1009.1 |
| 20260506101304 | 3 | 160 | 0.0 | 3.2 | 0.15 | 0.76 | 0.56 | 99 | 1009.1 |
| 20260506101204 | 3 | 154 | 0.0 | 3.2 | 0.15 | 0.76 | 0.56 | 99 | 1009.0 |
| 20260506101104 | 3 | 154 | 0.0 | 3.2 | 0.15 | 0.76 | 0.56 | 99 | 1009.1 |
| 20260506101005 | 3 | 169 | 1.6 | 3.2 | 0.15 | 0.76 | 0.56 | 99 | 1009.0 |
| 20260506100805 | 3 | 215 | 1.6 | 6.4 | 0.15 | 0.76 | 0.56 | 99 | 1009.1 |
| 20260506100704 | 3 | 247 | 1.6 | 9.7 | 0.15 | 0.76 | 0.56 | 99 | 1008.9 |
| 20260506100604 | 3 | 255 | 3.2 | 9.7 | 0.15 | 0.76 | 0.56 | 99 | 1009.1 |
| 20260506100304 | 4 | 261 | 3.2 | 9.7 | 0.13 | 0.71 | 0.53 | 99 | 1008.9 |
| 20260506100104 | 4 | 244 | 4.8 | 9.7 | 0.13 | 0.71 | 0.53 | 99 | 1008.8 |
| 20260506100005 | 4 | 228 | 4.8 | 11.3 | 0.13 | 0.71 | 0.53 | 99 | 1008.7 |
| 20260506095904 | 4 | 222 | 6.4 | 11.3 | 0.13 | 0.71 | 0.53 | 99 | 1008.7 |
| 20260506095805 | 4 | 207 | 6.4 | 11.3 | 0.13 | 0.71 | 0.53 | 99 | 1008.6 |
| 20260506095604 | 4 | 192 | 6.4 | 11.3 | 0.13 | 0.71 | 0.53 | 99 | 1008.6 |
| 20260506095505 | 4 | 185 | 6.4 | 11.3 | 0.13 | 0.71 | 0.53 | 99 | 1008.5 |
| 20260506095405 | 3 | 179 | 6.4 | 11.3 | 0.13 | 0.76 | 0.53 | 99 | 1008.3 |
| 20260506095305 | 3 | 181 | 6.4 | 11.3 | 0.13 | 0.76 | 0.53 | 99 | 1008.2 |
| 20260506095204 | 3 | 185 | 4.8 | 11.3 | 0.13 | 0.76 | 0.53 | 99 | 1008.3 |
| 20260506095104 | 3 | 181 | 4.8 | 11.3 | 0.10 | 0.71 | 0.51 | 99 | 1008.4 |
| 20260506095005 | 3 | 175 | 4.8 | 11.3 | 0.10 | 0.71 | 0.51 | 99 | 1008.1 |
| 20260506094905 | 3 | 169 | 4.8 | 11.3 | 0.10 | 0.71 | 0.51 | 99 | 1008.3 |
| 20260506094804 | 3 | 169 | 4.8 | 6.4 | 0.10 | 0.71 | 0.51 | 99 | 1008.4 |
| 20260506094506 | 3 | 171 | 3.2 | 6.4 | 0.10 | 0.71 | 0.51 | 99 | 1008.3 |
| 20260506094404 | 3 | 169 | 4.8 | 6.4 | 0.13 | 0.71 | 0.51 | 99 | 1008.5 |
| 20260506094205 | 3 | 159 | 4.8 | 6.4 | 0.10 | 0.69 | 0.48 | 99 | 1008.4 |
| 20260506093905 | 4 | 185 | 3.2 | 6.4 | 0.10 | 0.69 | 0.48 | 99 | 1008.6 |
| 20260506093804 | 4 | 185 | 3.2 | 3.2 | 0.10 | 0.69 | 0.48 | 99 | 1008.5 |
| 20260506093704 | 3 | 174 | 3.2 | 3.2 | 0.10 | 0.69 | 0.48 | 99 | 1008.6 |
| 20260506093604 | 3 | 160 | 3.2 | 3.2 | 0.10 | 0.69 | 0.48 | 99 | 1008.5 |
| 20260506093507 | 3 | 169 | 3.2 | 6.4 | 0.10 | 0.69 | 0.48 | 99 | 1008.5 |
| 20260506093405 | 4 | 191 | 3.2 | 6.4 | 0.15 | 0.69 | 0.48 | 99 | 1008.7 |
| 20260506093305 | 4 | 164 | 3.2 | 6.4 | 0.13 | 0.66 | 0.46 | 99 | 1008.5 |
| 20260506092904 | 3 | 175 | 4.8 | 6.4 | 0.15 | 0.66 | 0.46 | 99 | 1008.5 |
| 20260506092804 | 3 | 184 | 4.8 | 6.4 | 0.15 | 0.66 | 0.46 | 99 | 1008.8 |
| 20260506092704 | 3 | 176 | 4.8 | 6.4 | 0.15 | 0.66 | 0.46 | 99 | 1008.6 |
| 20260506092603 | 3 | 178 | 4.8 | 6.4 | 0.13 | 0.64 | 0.43 | 99 | 1008.6 |
| 20260506092504 | 3 | 171 | 6.4 | 12.9 | 0.13 | 0.64 | 0.43 | 98 | 1008.4 |
| 20260506092403 | 3 | 163 | 6.4 | 12.9 | 0.13 | 0.66 | 0.43 | 98 | 1008.7 |
| 20260506092306 | 3 | 156 | 8.0 | 12.9 | 0.13 | 0.66 | 0.43 | 99 | 1008.5 |
| 20260506092204 | 3 | 156 | 8.0 | 12.9 | 0.13 | 0.66 | 0.43 | 99 | 1008.5 |
| 20260506092104 | 4 | 164 | 8.0 | 12.9 | 0.13 | 0.66 | 0.43 | 99 | 1008.5 |
| 20260506092004 | 4 | 174 | 8.0 | 12.9 | 0.13 | 0.66 | 0.43 | 98 | 1008.7 |
| 20260506091904 | 4 | 174 | 8.0 | 12.9 | 0.13 | 0.66 | 0.43 | 98 | 1008.7 |
| 20260506091704 | 4 | 172 | 8.0 | 12.9 | 0.15 | 0.66 | 0.43 | 97 | 1008.6 |
| 20260506091604 | 4 | 176 | 8.0 | 12.9 | 0.15 | 0.66 | 0.43 | 97 | 1008.7 |
| 20260506091505 | 4 | 204 | 6.4 | 12.9 | 0.15 | 0.66 | 0.43 | 96 | 1008.6 |
| 20260506091404 | 4 | 268 | 6.4 | 12.9 | 0.15 | 0.66 | 0.43 | 97 | 1008.7 |
| 20260506091304 | 4 | 284 | 6.4 | 11.3 | 0.15 | 0.66 | 0.43 | 99 | 1009.0 |
| 20260506091204 | 4 | 288 | 4.8 | 11.3 | 0.15 | 0.66 | 0.43 | 99 | 1008.9 |
| 20260506091005 | 4 | 324 | 3.2 | 11.3 | 0.15 | 0.66 | 0.43 | 98 | 1008.7 |
| 20260506090804 | 3 | 320 | 3.2 | 11.3 | 0.15 | 0.66 | 0.43 | 99 | 1008.6 |
| 20260506090703 | 4 | 317 | 3.2 | 11.3 | 0.15 | 0.66 | 0.43 | 99 | 1008.8 |
| 20260506090504 | 4 | 305 | 3.2 | 11.3 | 0.15 | 0.66 | 0.43 | 99 | 1008.9 |
| 20260506090404 | 4 | 259 | 1.6 | 6.4 | 0.15 | 0.69 | 0.43 | 99 | 1008.7 |
| 20260506090304 | 4 | 181 | 1.6 | 3.2 | 0.15 | 0.69 | 0.43 | 99 | 1008.6 |
| 20260506090204 | 4 | 178 | 3.2 | 6.4 | 0.15 | 0.69 | 0.43 | 99 | 1008.7 |
| 20260506090104 | 4 | 174 | 3.2 | 6.4 | 0.15 | 0.69 | 0.43 | 99 | 1008.5 |
| 20260506090005 | 4 | 168 | 3.2 | 6.4 | 0.15 | 0.69 | 0.43 | 99 | 1008.6 |
| 20260506085904 | 4 | 161 | 4.8 | 6.4 | 0.15 | 0.69 | 0.43 | 99 | 1008.9 |
| 20260506085804 | 3 | 160 | 4.8 | 6.4 | 0.15 | 0.69 | 0.43 | 99 | 1008.7 |
| 20260506085703 | 3 | 159 | 4.8 | 6.4 | 0.15 | 0.69 | 0.43 | 99 | 1008.5 |
| 20260506085603 | 3 | 154 | 4.8 | 6.4 | 0.15 | 0.69 | 0.43 | 99 | 1008.6 |
| 20260506085305 | 3 | 159 | 6.4 | 9.7 | 0.15 | 0.71 | 0.43 | 99 | 1008.7 |
| 20260506085204 | 3 | 156 | 6.4 | 9.7 | 0.15 | 0.71 | 0.43 | 99 | 1008.7 |
| 20260506084904 | 3 | 160 | 6.4 | 9.7 | 0.15 | 0.76 | 0.43 | 99 | 1008.6 |
| 20260506084704 | 3 | 157 | 6.4 | 9.7 | 0.15 | 0.76 | 0.43 | 99 | 1008.4 |
| 20260506084604 | 3 | 161 | 6.4 | 9.7 | 0.13 | 0.71 | 0.38 | 99 | 1008.5 |
| 20260506084304 | 3 | 155 | 6.4 | 9.7 | 0.13 | 0.71 | 0.38 | 99 | 1008.7 |
| 20260506084203 | 3 | 161 | 6.4 | 6.4 | 0.13 | 0.71 | 0.38 | 99 | 1008.6 |
| 20260506084104 | 3 | 163 | 6.4 | 6.4 | 0.13 | 0.71 | 0.38 | 99 | 1008.6 |
| 20260506083903 | 3 | 166 | 6.4 | 6.4 | 0.10 | 0.71 | 0.36 | 99 | 1008.8 |
| 20260506083704 | 2 | 168 | 6.4 | 6.4 | 0.05 | 0.69 | 0.33 | 99 | 1008.7 |
| 20260506083604 | 2 | 167 | 6.4 | 6.4 | 0.05 | 0.69 | 0.33 | 99 | 1008.7 |
| 20260506083404 | 2 | 174 | 6.4 | 6.4 | 0.03 | 0.66 | 0.30 | 99 | 1008.8 |
| 20260506083104 | 2 | 177 | 4.8 | 6.4 | 0.03 | 0.66 | 0.30 | 99 | 1008.8 |
| 20260506083004 | 3 | 181 | 4.8 | 6.4 | 0.03 | 0.66 | 0.30 | 99 | 1008.6 |
| 20260506082904 | 3 | 181 | 4.8 | 6.4 | 0.03 | 0.66 | 0.30 | 99 | 1008.9 |
| 20260506082804 | 3 | 186 | 4.8 | 6.4 | 0.03 | 0.66 | 0.30 | 99 | 1008.7 |
| 20260506082704 | 3 | 186 | 4.8 | 6.4 | 0.05 | 0.66 | 0.30 | 99 | 1008.6 |
| 20260506082603 | 3 | 188 | 4.8 | 6.4 | 0.05 | 0.66 | 0.30 | 99 | 1008.7 |
| 20260506082504 | 3 | 190 | 4.8 | 6.4 | 0.05 | 0.66 | 0.30 | 99 | 1008.7 |
| 20260506082305 | 3 | 192 | 3.2 | 6.4 | 0.05 | 0.69 | 0.30 | 99 | 1008.9 |
| 20260506082104 | 3 | 187 | 3.2 | 6.4 | 0.05 | 0.69 | 0.30 | 99 | 1008.7 |
| 20260506082005 | 3 | 182 | 3.2 | 6.4 | 0.05 | 0.69 | 0.30 | 99 | 1008.6 |
| 20260506081904 | 3 | 195 | 1.6 | 6.4 | 0.05 | 0.69 | 0.30 | 99 | 1008.6 |
| 20260506081804 | 3 | 188 | 1.6 | 6.4 | 0.03 | 0.66 | 0.28 | 99 | 1008.7 |
| 20260506081703 | 3 | 201 | 1.6 | 3.2 | 0.03 | 0.66 | 0.28 | 99 | 1008.8 |
| 20260506081603 | 3 | 199 | 1.6 | 6.4 | 0.03 | 0.66 | 0.28 | 99 | 1008.7 |
| 20260506081504 | 3 | 213 | 1.6 | 6.4 | 0.03 | 0.66 | 0.28 | 99 | 1008.8 |
| 20260506081404 | 3 | 206 | 1.6 | 6.4 | 0.03 | 0.69 | 0.28 | 99 | 1008.9 |
| 20260506081304 | 3 | 206 | 1.6 | 6.4 | 0.03 | 0.69 | 0.28 | 99 | 1008.7 |
| 20260506081204 | 3 | 214 | 1.6 | 6.4 | 0.03 | 0.69 | 0.28 | 99 | 1008.6 |
| 20260506081104 | 3 | 214 | 3.2 | 6.4 | 0.03 | 0.69 | 0.28 | 99 | 1008.6 |
| 20260506081005 | 3 | 217 | 3.2 | 6.4 | 0.03 | 0.69 | 0.28 | 99 | 1008.7 |
| 20260506080903 | 3 | 212 | 3.2 | 6.4 | 0.03 | 0.69 | 0.28 | 99 | 1008.7 |
| 20260506080804 | 3 | 226 | 3.2 | 6.4 | 0.03 | 0.69 | 0.28 | 99 | 1008.6 |
| 20260506080704 | 3 | 230 | 3.2 | 6.4 | 0.03 | 0.69 | 0.28 | 99 | 1008.7 |
| 20260506080604 | 3 | 238 | 3.2 | 6.4 | 0.03 | 0.69 | 0.28 | 99 | 1008.6 |
| 20260506080504 | 3 | 232 | 1.6 | 3.2 | 0.03 | 0.69 | 0.28 | 99 | 1008.9 |
| 20260506080404 | 3 | 229 | 1.6 | 3.2 | 0.03 | 0.69 | 0.28 | 99 | 1008.7 |
| 20260506080304 | 3 | 229 | 3.2 | 3.2 | 0.03 | 0.69 | 0.28 | 99 | 1008.9 |
| 20260506080203 | 4 | 219 | 3.2 | 3.2 | 0.03 | 0.69 | 0.28 | 99 | 1008.8 |
| 20260506080104 | 4 | 212 | 3.2 | 3.2 | 0.03 | 0.69 | 0.28 | 99 | 1008.8 |
| 20260506073505 | 3 | 182 | 3.2 | 3.2 | 0.03 | 0.69 | 0.28 | 99 | 1009.0 |
| 20260506073304 | 3 | 171 | 3.2 | 6.4 | 0.03 | 0.69 | 0.28 | 99 | 1009.1 |
| 20260506073204 | 3 | 165 | 3.2 | 6.4 | 0.03 | 0.69 | 0.28 | 99 | 1009.3 |
| 20260506073104 | 3 | 161 | 3.2 | 6.4 | 0.03 | 0.69 | 0.28 | 99 | 1009.1 |
| 20260506073004 | 3 | 163 | 3.2 | 6.4 | 0.03 | 0.69 | 0.28 | 99 | 1009.0 |
| 20260506072903 | 3 | 164 | 3.2 | 6.4 | 0.03 | 0.69 | 0.28 | 99 | 1009.0 |
| 20260506072704 | 3 | 166 | 3.2 | 6.4 | 0.00 | 0.66 | 0.23 | 99 | 1009.0 |
| 20260506072604 | 3 | 169 | 3.2 | 6.4 | 0.00 | 0.66 | 0.23 | 99 | 1009.0 |
| 20260506072505 | 3 | 165 | 3.2 | 6.4 | 0.00 | 0.66 | 0.23 | 99 | 1009.1 |
| 20260506072404 | 3 | 164 | 1.6 | 6.4 | 0.00 | 0.66 | 0.23 | 99 | 1009.0 |
| 20260506072305 | 3 | 171 | 1.6 | 3.2 | 0.00 | 0.66 | 0.23 | 99 | 1009.1 |
| 20260506072203 | 3 | 184 | 1.6 | 3.2 | 0.00 | 0.66 | 0.23 | 99 | 1009.2 |
| 20260506072103 | 3 | 188 | 1.6 | 3.2 | 0.00 | 0.66 | 0.23 | 99 | 1009.0 |
| 20260506072004 | 3 | 188 | 1.6 | 3.2 | 0.00 | 0.66 | 0.23 | 99 | 1009.2 |
| 20260506071904 | 3 | 195 | 1.6 | 3.2 | 0.00 | 0.66 | 0.23 | 99 | 1009.0 |
| 20260506071804 | 3 | 197 | 1.6 | 3.2 | 0.00 | 0.66 | 0.23 | 99 | 1009.0 |
| 20260506071704 | 3 | 194 | 1.6 | 3.2 | 0.00 | 0.66 | 0.23 | 99 | 1009.1 |
| 20260506071604 | 3 | 188 | 3.2 | 3.2 | 0.00 | 0.66 | 0.23 | 99 | 1009.1 |
| 20260506071504 | 3 | 183 | 3.2 | 3.2 | 0.00 | 0.66 | 0.23 | 99 | 1009.2 |
| 20260506071304 | 3 | 182 | 3.2 | 3.2 | 0.00 | 0.66 | 0.23 | 99 | 1008.7 |
| 20260506071204 | 3 | 175 | 3.2 | 3.2 | 0.00 | 0.66 | 0.23 | 99 | 1009.0 |
| 20260506071104 | 3 | 175 | 3.2 | 3.2 | 0.00 | 0.66 | 0.23 | 99 | 1009.0 |
| 20260506071004 | 3 | 175 | 3.2 | 3.2 | 0.00 | 0.66 | 0.23 | 99 | 1009.0 |
| 20260506070803 | 3 | 167 | 3.2 | 3.2 | 0.00 | 0.66 | 0.23 | 99 | 1008.9 |
| 20260506070603 | 3 | 171 | 1.6 | 3.2 | 0.00 | 0.66 | 0.23 | 99 | 1009.1 |
| 20260506070504 | 3 | 175 | 1.6 | 3.2 | 0.05 | 0.66 | 0.23 | 99 | 1009.0 |
| 20260506070404 | 3 | 175 | 1.6 | 3.2 | 0.05 | 0.66 | 0.23 | 99 | 1008.9 |
| 20260506070304 | 3 | 182 | 1.6 | 3.2 | 0.05 | 0.66 | 0.23 | 99 | 1009.1 |
| 20260506070204 | 3 | 197 | 1.6 | 3.2 | 0.05 | 0.66 | 0.23 | 99 | 1009.1 |
| 20260506070103 | 3 | 203 | 1.6 | 3.2 | 0.05 | 0.66 | 0.23 | 99 | 1009.0 |
| 20260506062505 | 2 | 167 | 0.0 | 6.4 | 0.15 | 0.66 | 0.23 | 99 | 1009.6 |
| 20260506062403 | 2 | 177 | 1.6 | 6.4 | 0.15 | 0.66 | 0.23 | 99 | 1009.4 |
| 20260506062305 | 2 | 172 | 1.6 | 6.4 | 0.15 | 0.66 | 0.23 | 99 | 1009.4 |
| 20260506062004 | 2 | 169 | 1.6 | 6.4 | 0.15 | 0.66 | 0.23 | 99 | 1009.4 |
| 20260506061904 | 2 | 169 | 1.6 | 6.4 | 0.15 | 0.66 | 0.23 | 99 | 1009.3 |
| 20260506061804 | 2 | 171 | 1.6 | 6.4 | 0.15 | 0.66 | 0.23 | 99 | 1009.4 |
| 20260506061603 | 2 | 173 | 3.2 | 6.4 | 0.15 | 0.66 | 0.23 | 99 | 1009.5 |
| 20260506061504 | 2 | 173 | 3.2 | 6.4 | 0.15 | 0.66 | 0.23 | 99 | 1009.4 |
| 20260506061403 | 2 | 164 | 3.2 | 3.2 | 0.15 | 0.66 | 0.23 | 99 | 1009.6 |
| 20260506061204 | 2 | 158 | 3.2 | 3.2 | 0.15 | 0.66 | 0.23 | 99 | 1009.5 |
| 20260506061104 | 2 | 152 | 3.2 | 3.2 | 0.15 | 0.66 | 0.23 | 99 | 1009.4 |
| 20260506061005 | 2 | 149 | 3.2 | 3.2 | 0.15 | 0.66 | 0.23 | 99 | 1009.3 |
| 20260506060904 | 2 | 154 | 3.2 | 6.4 | 0.15 | 0.66 | 0.23 | 99 | 1009.3 |
| 20260506060803 | 2 | 161 | 3.2 | 6.4 | 0.15 | 0.66 | 0.23 | 99 | 1009.4 |
| 20260506060704 | 2 | 165 | 3.2 | 6.4 | 0.15 | 0.66 | 0.23 | 99 | 1009.2 |
| 20260506060604 | 2 | 166 | 4.8 | 6.4 | 0.15 | 0.66 | 0.23 | 99 | 1009.4 |
| 20260506060504 | 2 | 168 | 3.2 | 6.4 | 0.10 | 0.61 | 0.18 | 99 | 1009.2 |
| 20260506060403 | 2 | 178 | 3.2 | 6.4 | 0.10 | 0.61 | 0.18 | 99 | 1009.2 |
| 20260506060303 | 2 | 181 | 3.2 | 6.4 | 0.10 | 0.61 | 0.18 | 99 | 1009.3 |
| 20260506060204 | 2 | 184 | 3.2 | 6.4 | 0.10 | 0.61 | 0.18 | 99 | 1009.1 |
| 20260506060104 | 2 | 187 | 3.2 | 6.4 | 0.10 | 0.61 | 0.18 | 99 | 1009.4 |
| 20260506051403 | 3 | 185 | 3.2 | 6.4 | 0.00 | 0.51 | 0.10 | 99 | 1009.7 |
| 20260506051303 | 3 | 191 | 3.2 | 6.4 | 0.00 | 0.51 | 0.10 | 99 | 1009.6 |
| 20260506051104 | 3 | 196 | 3.2 | 6.4 | 0.00 | 0.51 | 0.10 | 99 | 1009.5 |
| 20260506051005 | 3 | 198 | 3.2 | 6.4 | 0.00 | 0.51 | 0.10 | 99 | 1009.4 |
| 20260506050804 | 3 | 199 | 3.2 | 6.4 | 0.00 | 0.51 | 0.10 | 99 | 1009.5 |
| 20260506050703 | 3 | 207 | 3.2 | 6.4 | 0.00 | 0.51 | 0.10 | 99 | 1009.4 |
| 20260506050404 | 3 | 235 | 1.6 | 6.4 | 0.00 | 0.51 | 0.10 | 99 | 1009.5 |
| 20260506050303 | 3 | 236 | 1.6 | 6.4 | 0.00 | 0.51 | 0.10 | 99 | 1009.3 |
| 20260506050203 | 3 | 238 | 1.6 | 6.4 | 0.00 | 0.51 | 0.10 | 99 | 1009.4 |
| 20260506050104 | 3 | 226 | 1.6 | 6.4 | 0.00 | 0.51 | 0.10 | 99 | 1009.4 |
| 20260506044903 | 3 | 165 | 1.6 | 6.4 | 0.00 | 0.51 | 0.10 | 99 | 1009.3 |
| 20260506044804 | 3 | 164 | 1.6 | 6.4 | 0.00 | 0.51 | 0.10 | 99 | 1009.4 |
| 20260506044704 | 3 | 165 | 1.6 | 6.4 | 0.00 | 0.51 | 0.10 | 99 | 1009.5 |
| 20260506044604 | 3 | 165 | 1.6 | 6.4 | 0.00 | 0.51 | 0.10 | 99 | 1009.4 |
| 20260506044505 | 3 | 165 | 1.6 | 6.4 | 0.00 | 0.51 | 0.10 | 99 | 1009.3 |
| 20260506044404 | 3 | 165 | 1.6 | 6.4 | 0.00 | 0.51 | 0.10 | 99 | 1009.3 |
| 20260506044303 | 3 | 169 | 1.6 | 6.4 | 0.00 | 0.51 | 0.10 | 99 | 1009.4 |
| 20260506044203 | 3 | 135 | 0.0 | 6.4 | 0.00 | 0.51 | 0.10 | 99 | 1009.1 |
| 20260506044103 | 3 | 0 | 0.0 | 0.0 | 0.00 | 0.51 | 0.10 | 99 | 1009.3 |
| 20260506044004 | 3 | 0 | 0.0 | 0.0 | 0.00 | 0.51 | 0.10 | 99 | 1009.4 |
| 20260506043903 | 3 | 203 | 0.0 | 3.2 | 0.00 | 0.51 | 0.10 | 99 | 1009.3 |
| 20260506043804 | 3 | 203 | 0.0 | 3.2 | 0.00 | 0.51 | 0.10 | 99 | 1009.5 |
| 20260506043704 | 3 | 203 | 0.0 | 3.2 | 0.00 | 0.51 | 0.10 | 99 | 1009.3 |
| 20260506043504 | 3 | 203 | 0.0 | 3.2 | 0.00 | 0.51 | 0.10 | 99 | 1009.5 |
| 20260506043404 | 3 | 203 | 0.0 | 3.2 | 0.00 | 0.51 | 0.10 | 99 | 1009.0 |
| 20260506043203 | 2 | 203 | 0.0 | 3.2 | 0.00 | 0.51 | 0.10 | 99 | 1009.2 |
| 20260506043103 | 2 | 203 | 0.0 | 3.2 | 0.00 | 0.51 | 0.10 | 99 | 1009.2 |
| 20260506043004 | 2 | 203 | 0.0 | 3.2 | 0.00 | 0.51 | 0.10 | 99 | 1009.1 |
| 20260506042904 | 2 | 203 | 0.0 | 3.2 | 0.00 | 0.51 | 0.10 | 99 | 1009.1 |
| 20260506042704 | 3 | 0 | 0.0 | 0.0 | 0.00 | 0.51 | 0.10 | 99 | 1009.3 |
| 20260506042604 | 3 | 0 | 0.0 | 0.0 | 0.00 | 0.51 | 0.10 | 99 | 1009.2 |
| 20260506042504 | 3 | 0 | 0.0 | 0.0 | 0.00 | 0.51 | 0.10 | 99 | 1009.3 |
| 20260506042404 | 3 | 0 | 0.0 | 0.0 | 0.00 | 0.51 | 0.10 | 99 | 1009.3 |
| 20260506042305 | 3 | 0 | 0.0 | 0.0 | 0.00 | 0.51 | 0.10 | 99 | 1009.1 |
| 20260506042203 | 3 | 135 | 0.0 | 3.2 | 0.00 | 0.51 | 0.10 | 99 | 1009.2 |
| 20260506042103 | 3 | 135 | 0.0 | 3.2 | 0.00 | 0.51 | 0.10 | 99 | 1009.1 |
| 20260506042004 | 3 | 135 | 0.0 | 3.2 | 0.00 | 0.51 | 0.10 | 99 | 1009.3 |
| 20260506041904 | 3 | 135 | 0.0 | 3.2 | 0.00 | 0.51 | 0.10 | 99 | 1009.4 |
| 20260506041804 | 2 | 142 | 0.0 | 3.2 | 0.00 | 0.51 | 0.10 | 99 | 1009.3 |
| 20260506041704 | 2 | 142 | 0.0 | 3.2 | 0.00 | 0.51 | 0.10 | 99 | 1009.1 |
| 20260506041504 | 2 | 159 | 0.0 | 3.2 | 0.00 | 0.51 | 0.10 | 99 | 1009.3 |
| 20260506041403 | 3 | 159 | 1.6 | 3.2 | 0.00 | 0.51 | 0.10 | 99 | 1009.3 |
| 20260506041304 | 3 | 159 | 1.6 | 3.2 | 0.00 | 0.51 | 0.10 | 99 | 1009.2 |
| 20260506041204 | 2 | 162 | 0.0 | 3.2 | 0.00 | 0.51 | 0.10 | 99 | 1009.4 |
| 20260506041104 | 2 | 177 | 0.0 | 3.2 | 0.00 | 0.51 | 0.10 | 99 | 1009.1 |
| 20260506041004 | 2 | 182 | 0.0 | 3.2 | 0.00 | 0.51 | 0.10 | 99 | 1009.3 |
| 20260506040903 | 2 | 182 | 0.0 | 3.2 | 0.00 | 0.51 | 0.10 | 99 | 1009.2 |
| 20260506040704 | 2 | 203 | 0.0 | 3.2 | 0.00 | 0.51 | 0.10 | 99 | 1009.3 |
| 20260506040604 | 2 | 0 | 0.0 | 0.0 | 0.00 | 0.51 | 0.10 | 99 | 1009.3 |
| 20260506040404 | 2 | 0 | 0.0 | 0.0 | 0.00 | 0.51 | 0.10 | 99 | 1009.3 |
| 20260506040304 | 2 | 0 | 0.0 | 0.0 | 0.00 | 0.51 | 0.10 | 99 | 1009.2 |
| 20260506040204 | 2 | 158 | 0.0 | 3.2 | 0.00 | 0.51 | 0.10 | 99 | 1009.2 |
| 20260506040004 | 2 | 166 | 0.0 | 3.2 | 0.00 | 0.51 | 0.10 | 99 | 1009.2 |
| 20260506035903 | 2 | 165 | 0.0 | 3.2 | 0.00 | 0.51 | 0.10 | 99 | 1009.2 |
| 20260506035604 | 3 | 164 | 1.6 | 3.2 | 0.00 | 0.51 | 0.10 | 99 | 1009.4 |
| 20260506035505 | 3 | 163 | 1.6 | 3.2 | 0.00 | 0.51 | 0.10 | 99 | 1009.3 |
| 20260506035404 | 2 | 163 | 1.6 | 3.2 | 0.00 | 0.51 | 0.10 | 99 | 1009.1 |
| 20260506035203 | 2 | 165 | 1.6 | 3.2 | 0.00 | 0.51 | 0.10 | 99 | 1009.2 |
| 20260506035103 | 2 | 172 | 1.6 | 3.2 | 0.00 | 0.51 | 0.10 | 99 | 1009.4 |
| 20260506034903 | 2 | 167 | 1.6 | 3.2 | 0.00 | 0.51 | 0.10 | 99 | 1009.3 |
| 20260506034803 | 2 | 167 | 1.6 | 3.2 | 0.00 | 0.51 | 0.10 | 99 | 1009.4 |
| 20260506034703 | 2 | 166 | 1.6 | 3.2 | 0.00 | 0.51 | 0.10 | 99 | 1009.4 |
| 20260506034604 | 2 | 166 | 3.2 | 6.4 | 0.00 | 0.51 | 0.10 | 99 | 1009.2 |